GFSMW_prec_precacc24_093.txt.gz
Total_Precipitation_Accumulation
0.00 0.00 0.00 0.00 0.00 0.00 0.00 0.00 0.02 0.06 0.07 0.06 0.07 0.08 0.02 0.04 0.04 0.04 0.30 0.65 0.85 1.62 0.94 0.49 0.20 0.16 0.18 0.29 0.38 0.54 0.49 0.61 0.59 0.52 0.46 0.33 0.15 0.06 0.04 0.01 0.00 0.00 0.00
0.00 0.00 0.00 0.00 0.00 0.00 0.00 0.00 0.01 0.03 0.02 0.02 0.06 0.08 0.11 0.13 0.11 0.06 0.10 0.30 0.51 0.94 1.27 0.72 0.48 0.27 0.24 0.20 0.36 0.43 0.43 0.51 0.44 0.39 0.34 0.39 0.36 0.22 0.05 0.01 0.00 0.00 0.00
0.00 0.00 0.00 0.00 0.00 0.00 0.00 0.00 0.01 0.02 0.02 0.02 0.04 0.07 0.11 0.10 0.15 0.08 0.08 0.14 0.31 0.67 0.91 0.89 0.70 0.45 0.38 0.26 0.19 0.29 0.23 0.31 0.33 0.15 0.23 0.20 0.19 0.11 0.05 0.01 0.00 0.00 0.00
0.00 0.00 0.00 0.00 0.00 0.00 0.00 0.00 0.01 0.02 0.02 0.03 0.03 0.03 0.02 0.01 0.02 0.02 0.05 0.13 0.13 0.38 0.68 0.70 0.65 0.50 0.36 0.42 0.28 0.28 0.29 0.23 0.26 0.16 0.17 0.06 0.05 0.05 0.12 0.08 0.02 0.00 0.00
0.00 0.00 0.00 0.00 0.00 0.00 0.00 0.00 0.05 0.04 0.01 0.04 0.02 0.04 0.03 0.05 0.08 0.06 0.03 0.10 0.24 0.17 0.48 0.63 0.70 0.53 0.41 0.35 0.32 0.33 0.33 0.22 0.19 0.09 0.13 0.13 0.09 0.13 0.14 0.13 0.05 0.00 0.00
0.01 0.00 0.00 0.00 0.00 0.08 0.04 0.00 0.03 0.04 0.05 0.04 0.05 0.04 0.03 0.06 0.06 0.04 0.04 0.05 0.18 0.42 0.50 0.64 0.57 0.61 0.43 0.34 0.35 0.33 0.33 0.27 0.22 0.19 0.08 0.08 0.11 0.11 0.11 0.06 0.02 0.00 0.00
0.02 0.01 0.01 0.01 0.00 0.05 0.19 0.13 0.13 0.05 0.03 0.03 0.05 0.06 0.08 0.05 0.06 0.04 0.02 0.03 0.05 0.16 0.34 0.51 0.53 0.55 0.51 0.36 0.39 0.42 0.43 0.35 0.26 0.25 0.15 0.07 0.06 0.08 0.11 0.08 0.03 0.01 0.00
0.04 0.02 0.02 0.03 0.01 0.00 0.10 0.22 0.32 0.25 0.18 0.16 0.15 0.13 0.07 0.03 0.03 0.03 0.03 0.04 0.02 0.02 0.11 0.31 0.45 0.42 0.59 0.59 0.46 0.49 0.43 0.52 0.40 0.31 0.27 0.14 0.10 0.09 0.06 0.04 0.06 0.04 0.01
0.10 0.04 0.03 0.05 0.04 0.05 0.24 0.25 0.21 0.14 0.21 0.28 0.21 0.17 0.09 0.03 0.02 0.01 0.02 0.04 0.04 0.03 0.02 0.09 0.29 0.37 0.38 0.61 0.70 0.57 0.48 0.49 0.55 0.43 0.33 0.18 0.13 0.11 0.05 0.03 0.05 0.07 0.04
0.01 0.02 0.04 0.12 0.19 0.51 0.81 0.86 0.75 0.54 0.39 0.36 0.28 0.23 0.14 0.09 0.04 0.01 0.02 0.02 0.03 0.04 0.04 0.03 0.06 0.22 0.40 0.44 0.69 0.65 0.53 0.58 0.54 0.52 0.49 0.33 0.17 0.10 0.04 0.02 0.02 0.04 0.05
0.01 0.02 0.07 0.15 0.35 0.47 0.71 0.85 0.95 1.03 0.74 0.61 0.43 0.32 0.18 0.13 0.08 0.03 0.02 0.02 0.02 0.03 0.03 0.05 0.03 0.05 0.17 0.32 0.57 0.78 0.55 0.58 0.54 0.46 0.44 0.34 0.22 0.16 0.09 0.05 0.07 0.07 0.09
0.04 0.04 0.05 0.07 0.28 0.47 0.62 0.71 0.90 1.28 1.01 0.64 0.50 0.39 0.20 0.16 0.07 0.04 0.03 0.02 0.01 0.02 0.02 0.04 0.04 0.02 0.04 0.18 0.44 0.74 0.76 0.56 0.55 0.53 0.42 0.37 0.29 0.22 0.16 0.12 0.12 0.10 0.06
0.06 0.06 0.08 0.10 0.15 0.18 0.31 0.40 0.67 0.99 0.99 0.96 0.63 0.43 0.27 0.12 0.05 0.03 0.04 0.04 0.03 0.02 0.02 0.03 0.04 0.03 0.02 0.08 0.32 0.47 0.65 0.60 0.45 0.51 0.54 0.43 0.32 0.28 0.24 0.18 0.13 0.08 0.06
0.12 0.12 0.12 0.14 0.18 0.23 0.26 0.36 0.76 0.80 0.47 0.79 0.87 0.62 0.27 0.10 0.05 0.02 0.04 0.03 0.04 0.03 0.02 0.02 0.07 0.06 0.02 0.10 0.20 0.28 0.45 0.61 0.58 0.51 0.58 0.52 0.42 0.26 0.21 0.18 0.13 0.11 0.11
0.11 0.19 0.19 0.19 0.20 0.23 0.25 0.33 0.37 0.63 0.55 0.60 1.09 1.05 0.42 0.13 0.06 0.06 0.04 0.03 0.03 0.02 0.02 0.02 0.04 0.07 0.03 0.04 0.10 0.18 0.28 0.50 0.63 0.60 0.56 0.39 0.38 0.37 0.32 0.31 0.25 0.23 0.21
0.15 0.16 0.16 0.15 0.17 0.17 0.16 0.21 0.28 0.30 0.38 0.36 0.68 0.93 0.75 0.15 0.07 0.06 0.06 0.05 0.07 0.08 0.07 0.07 0.07 0.10 0.09 0.17 0.09 0.10 0.10 0.13 0.23 0.29 0.30 0.28 0.25 0.21 0.23 0.22 0.20 0.19 0.17
0.17 0.16 0.17 0.16 0.17 0.16 0.14 0.16 0.21 0.24 0.34 0.36 0.41 0.36 0.50 0.33 0.12 0.07 0.07 0.09 0.09 0.09 0.11 0.14 0.15 0.17 0.18 0.35 0.20 0.20 0.10 0.10 0.11 0.14 0.18 0.17 0.29 0.36 0.14 0.16 0.15 0.12 0.18
0.59 0.29 0.22 0.19 0.17 0.19 0.20 0.19 0.21 0.25 0.32 0.38 0.41 0.45 0.35 0.35 0.15 0.12 0.12 0.14 0.09 0.09 0.10 0.10 0.11 0.11 0.18 0.27 0.24 0.24 0.12 0.09 0.10 0.10 0.13 0.15 0.14 0.27 0.31 0.13 0.14 0.18 0.28
0.66 0.94 0.47 0.27 0.29 0.24 0.23 0.24 0.25 0.26 0.30 0.42 0.53 0.56 0.49 0.41 0.27 0.21 0.16 0.14 0.15 0.14 0.13 0.12 0.09 0.08 0.10 0.21 0.16 0.14 0.03 0.05 0.09 0.15 0.22 0.26 0.13 0.25 0.22 0.08 0.10 0.14 0.31
0.49 0.48 0.74 0.67 0.52 0.56 0.39 0.29 0.29 0.28 0.37 0.40 0.46 0.53 0.62 0.62 0.64 0.51 0.33 0.23 0.20 0.17 0.17 0.19 0.18 0.20 0.10 0.20 0.17 0.13 0.06 0.06 0.05 0.10 0.23 0.43 0.17 0.13 0.09 0.06 0.05 0.18 0.47
0.32 0.35 0.30 0.44 0.65 0.72 0.81 0.67 0.51 0.45 0.47 0.52 0.55 0.59 0.66 0.75 0.69 0.58 0.51 0.45 0.34 0.28 0.24 0.21 0.21 0.20 0.20 0.25 0.24 0.23 0.16 0.17 0.17 0.19 0.20 0.25 0.30 0.12 0.12 0.19 0.16 0.44 0.45
0.24 0.19 0.23 0.22 0.23 0.23 0.32 0.64 0.81 0.79 0.69 0.61 0.54 0.62 0.62 0.70 0.84 0.89 0.79 0.60 0.49 0.41 0.31 0.26 0.24 0.25 0.31 0.33 0.31 0.22 0.17 0.17 0.13 0.18 0.17 0.21 0.20 0.09 0.09 0.16 0.28 0.41 0.43
0.12 0.05 0.08 0.05 0.04 0.06 0.08 0.14 0.25 0.44 0.53 0.58 0.64 0.59 0.57 0.57 0.53 0.55 0.67 0.77 0.75 0.61 0.44 0.28 0.22 0.21 0.21 0.26 0.28 0.28 0.25 0.20 0.15 0.14 0.16 0.16 0.13 0.12 0.15 0.20 0.24 0.28 0.33
0.16 0.05 0.02 0.01 0.03 0.05 0.06 0.04 0.02 0.03 0.07 0.11 0.15 0.20 0.25 0.27 0.28 0.30 0.33 0.35 0.43 0.49 0.55 0.53 0.46 0.38 0.31 0.26 0.22 0.16 0.12 0.11 0.10 0.11 0.12 0.12 0.12 0.14 0.16 0.19 0.23 0.25 0.30
0.31 0.12 0.08 0.07 0.08 0.04 0.03 0.05 0.04 0.01 0.01 0.03 0.05 0.07 0.09 0.12 0.15 0.16 0.16 0.17 0.21 0.18 0.21 0.27 0.29 0.31 0.36 0.38 0.28 0.23 0.20 0.18 0.17 0.14 0.13 0.12 0.12 0.12 0.12 0.13 0.16 0.15 0.13
0.22 0.17 0.15 0.13 0.08 0.04 0.04 0.04 0.02 0.02 0.01 0.01 0.01 0.01 0.01 0.01 0.03 0.04 0.06 0.06 0.06 0.04 0.04 0.05 0.05 0.09 0.11 0.09 0.07 0.07 0.06 0.07 0.07 0.06 0.08 0.09 0.09 0.09 0.09 0.08 0.07 0.06 0.06

GFSMW_prec_precacc24_099.txt.gz
Total_Precipitation_Accumulation
0.00 0.00 0.00 0.00 0.00 0.00 0.00 0.00 0.01 0.05 0.07 0.07 0.07 0.09 0.02 0.04 0.06 0.05 0.11 0.06 0.19 1.08 0.78 0.39 0.17 0.15 0.18 0.29 0.39 0.55 0.49 0.61 0.59 0.54 0.48 0.35 0.19 0.19 0.33 0.31 0.15 0.11 0.09
0.00 0.00 0.00 0.00 0.00 0.00 0.00 0.00 0.00 0.03 0.01 0.02 0.05 0.07 0.11 0.13 0.23 0.22 0.22 0.18 0.08 0.34 1.02 0.56 0.44 0.26 0.25 0.21 0.37 0.45 0.44 0.52 0.45 0.40 0.35 0.42 0.46 0.41 0.31 0.26 0.19 0.07 0.05
0.00 0.00 0.00 0.00 0.00 0.00 0.00 0.00 0.01 0.02 0.01 0.02 0.03 0.07 0.17 0.22 0.37 0.33 0.28 0.24 0.31 0.35 0.64 0.73 0.64 0.45 0.38 0.27 0.20 0.32 0.28 0.34 0.37 0.16 0.25 0.21 0.22 0.20 0.29 0.27 0.17 0.16 0.08
0.00 0.00 0.00 0.00 0.00 0.00 0.00 0.00 0.01 0.02 0.01 0.02 0.03 0.02 0.02 0.01 0.01 0.05 0.19 0.28 0.55 0.83 0.91 0.72 0.67 0.52 0.36 0.43 0.30 0.31 0.36 0.34 0.33 0.22 0.19 0.07 0.06 0.08 0.19 0.25 0.26 0.16 0.10
0.00 0.00 0.00 0.00 0.00 0.00 0.00 0.00 0.05 0.04 0.01 0.03 0.02 0.04 0.03 0.04 0.07 0.05 0.07 0.12 0.24 0.29 0.83 0.86 0.78 0.57 0.43 0.36 0.35 0.37 0.38 0.29 0.29 0.16 0.16 0.14 0.10 0.16 0.18 0.25 0.24 0.22 0.12
0.01 0.00 0.00 0.00 0.00 0.08 0.04 0.00 0.03 0.04 0.05 0.04 0.05 0.04 0.03 0.06 0.06 0.03 0.04 0.05 0.06 0.16 0.39 0.54 0.43 0.58 0.44 0.35 0.37 0.36 0.37 0.32 0.29 0.28 0.17 0.12 0.14 0.14 0.19 0.23 0.21 0.22 0.20
0.02 0.01 0.01 0.01 0.00 0.05 0.19 0.13 0.13 0.05 0.03 0.03 0.05 0.06 0.08 0.06 0.07 0.05 0.04 0.05 0.03 0.07 0.17 0.41 0.42 0.40 0.47 0.36 0.40 0.42 0.46 0.39 0.31 0.31 0.22 0.16 0.12 0.13 0.22 0.28 0.29 0.27 0.20
0.05 0.02 0.03 0.03 0.02 0.02 0.11 0.24 0.36 0.28 0.21 0.19 0.20 0.20 0.18 0.16 0.15 0.14 0.15 0.08 0.03 0.04 0.12 0.22 0.38 0.32 0.45 0.52 0.43 0.46 0.40 0.49 0.40 0.34 0.30 0.19 0.19 0.18 0.15 0.17 0.24 0.28 0.21
0.10 0.06 0.06 0.08 0.07 0.08 0.27 0.30 0.27 0.21 0.30 0.42 0.31 0.29 0.25 0.26 0.25 0.26 0.31 0.28 0.16 0.13 0.14 0.09 0.21 0.29 0.30 0.51 0.63 0.53 0.46 0.47 0.50 0.40 0.35 0.24 0.19 0.21 0.22 0.15 0.12 0.17 0.22
0.02 0.04 0.06 0.14 0.22 0.55 0.85 0.97 0.86 0.65 0.55 0.58 0.49 0.44 0.33 0.24 0.22 0.23 0.30 0.28 0.26 0.18 0.14 0.08 0.07 0.15 0.31 0.37 0.61 0.61 0.52 0.58 0.57 0.57 0.51 0.35 0.22 0.18 0.17 0.16 0.10 0.11 0.12
0.01 0.02 0.08 0.15 0.35 0.48 0.73 0.92 1.10 1.26 0.99 0.83 0.76 0.62 0.41 0.30 0.23 0.22 0.16 0.24 0.18 0.19 0.07 0.07 0.04 0.06 0.18 0.33 0.55 0.71 0.53 0.63 0.71 0.64 0.61 0.46 0.33 0.32 0.26 0.20 0.17 0.15 0.14
0.02 0.02 0.04 0.07 0.27 0.47 0.63 0.76 1.02 1.56 1.24 0.77 0.69 0.53 0.40 0.43 0.22 0.17 0.13 0.08 0.07 0.05 0.03 0.05 0.05 0.03 0.05 0.19 0.45 0.74 0.74 0.59 0.62 0.72 0.73 0.71 0.50 0.39 0.36 0.32 0.27 0.18 0.15
0.04 0.05 0.05 0.06 0.10 0.19 0.35 0.42 0.67 1.06 1.11 1.09 0.82 0.66 0.51 0.36 0.22 0.14 0.11 0.08 0.04 0.03 0.02 0.04 0.05 0.03 0.02 0.08 0.32 0.47 0.71 0.74 0.65 0.67 0.78 0.70 0.62 0.52 0.39 0.32 0.31 0.25 0.19
0.07 0.08 0.09 0.09 0.09 0.13 0.18 0.32 0.70 0.77 0.51 0.92 1.02 0.80 0.70 0.54 0.28 0.17 0.12 0.08 0.05 0.03 0.02 0.02 0.07 0.06 0.02 0.11 0.21 0.29 0.47 0.70 0.78 0.76 0.80 0.84 0.72 0.55 0.42 0.35 0.31 0.31 0.28
0.08 0.12 0.11 0.12 0.12 0.12 0.14 0.25 0.38 0.78 0.76 0.79 1.25 1.29 0.88 0.67 0.66 0.53 0.30 0.08 0.04 0.02 0.02 0.02 0.04 0.07 0.03 0.05 0.11 0.22 0.31 0.55 0.76 0.82 0.84 0.73 0.81 0.78 0.67 0.56 0.49 0.45 0.38
0.15 0.15 0.14 0.13 0.14 0.12 0.13 0.20 0.27 0.30 0.48 0.57 0.87 1.19 1.67 0.97 0.93 1.01 0.96 0.41 0.09 0.06 0.05 0.05 0.05 0.07 0.05 0.13 0.09 0.11 0.15 0.20 0.33 0.46 0.58 0.76 0.76 0.73 0.78 0.73 0.64 0.57 0.42
0.17 0.16 0.17 0.16 0.18 0.17 0.16 0.21 0.27 0.26 0.34 0.45 0.76 0.86 1.00 1.41 1.00 1.07 1.06 1.02 0.27 0.08 0.08 0.08 0.09 0.10 0.09 0.18 0.12 0.13 0.08 0.14 0.14 0.20 0.33 0.47 0.87 0.97 0.61 0.71 0.72 0.67 0.64
0.48 0.23 0.20 0.19 0.18 0.20 0.21 0.22 0.26 0.30 0.34 0.43 0.58 0.70 0.57 0.99 1.27 0.94 0.88 0.80 0.36 0.12 0.10 0.08 0.07 0.06 0.10 0.15 0.15 0.17 0.05 0.12 0.16 0.14 0.15 0.22 0.35 0.76 0.82 0.61 0.67 0.66 0.68
0.45 0.78 0.42 0.26 0.30 0.24 0.24 0.25 0.27 0.32 0.35 0.51 0.65 0.77 0.84 0.89 0.99 1.20 0.95 0.79 0.50 0.21 0.15 0.12 0.08 0.06 0.08 0.15 0.16 0.15 0.03 0.05 0.11 0.16 0.16 0.15 0.10 0.30 0.41 0.28 0.29 0.34 0.47
0.43 0.47 0.73 0.66 0.51 0.56 0.39 0.29 0.30 0.30 0.40 0.47 0.53 0.63 0.81 0.97 1.12 1.22 1.20 0.99 0.75 0.40 0.27 0.24 0.20 0.21 0.11 0.19 0.19 0.16 0.06 0.09 0.06 0.06 0.13 0.20 0.15 0.19 0.15 0.11 0.13 0.17 0.26
0.33 0.37 0.31 0.45 0.67 0.72 0.81 0.67 0.51 0.47 0.52 0.56 0.59 0.61 0.69 0.83 0.93 0.96 0.99 1.06 0.97 0.73 0.46 0.38 0.33 0.28 0.28 0.28 0.27 0.27 0.18 0.20 0.18 0.15 0.15 0.20 0.21 0.14 0.14 0.12 0.08 0.12 0.11
0.25 0.21 0.25 0.23 0.24 0.23 0.32 0.64 0.83 0.82 0.70 0.62 0.55 0.62 0.62 0.72 0.87 0.95 0.94 0.83 0.80 0.84 0.76 0.55 0.51 0.47 0.52 0.52 0.45 0.33 0.26 0.24 0.17 0.21 0.19 0.23 0.21 0.16 0.13 0.09 0.12 0.09 0.04
0.14 0.07 0.09 0.06 0.05 0.07 0.08 0.14 0.27 0.45 0.53 0.58 0.64 0.59 0.57 0.57 0.54 0.56 0.69 0.79 0.81 0.71 0.62 0.55 0.49 0.50 0.51 0.55 0.52 0.50 0.45 0.38 0.27 0.27 0.29 0.28 0.18 0.11 0.10 0.09 0.05 0.01 0.00
0.17 0.06 0.02 0.01 0.03 0.06 0.06 0.05 0.02 0.03 0.07 0.11 0.15 0.20 0.25 0.28 0.29 0.30 0.34 0.36 0.45 0.53 0.60 0.60 0.55 0.51 0.46 0.44 0.42 0.36 0.31 0.28 0.27 0.28 0.23 0.18 0.13 0.10 0.09 0.06 0.03 0.02 0.01
0.32 0.13 0.08 0.07 0.09 0.05 0.04 0.06 0.05 0.01 0.01 0.03 0.05 0.07 0.10 0.13 0.15 0.16 0.18 0.18 0.23 0.21 0.23 0.31 0.33 0.36 0.41 0.47 0.39 0.34 0.30 0.28 0.27 0.25 0.26 0.25 0.23 0.21 0.19 0.16 0.13 0.10 0.08
0.23 0.17 0.15 0.13 0.08 0.04 0.04 0.04 0.03 0.02 0.01 0.01 0.01 0.01 0.01 0.02 0.03 0.04 0.06 0.07 0.09 0.06 0.06 0.07 0.08 0.12 0.14 0.13 0.12 0.11 0.10 0.09 0.08 0.07 0.10 0.11 0.11 0.10 0.09 0.08 0.08 0.07 0.06

GFSMW_prec_precacc24_105.txt.gz
Total_Precipitation_Accumulation
0.00 0.00 0.00 0.00 0.00 0.00 0.00 0.00 0.01 0.05 0.07 0.06 0.07 0.07 0.01 0.03 0.05 0.04 0.10 0.03 0.03 0.09 0.12 0.08 0.07 0.06 0.06 0.12 0.26 0.43 0.45 0.59 0.59 0.55 0.48 0.37 0.23 0.24 0.38 0.50 0.46 0.68 0.66
0.00 0.00 0.00 0.00 0.00 0.00 0.00 0.00 0.00 0.02 0.01 0.02 0.05 0.06 0.11 0.12 0.22 0.21 0.21 0.14 0.03 0.05 0.08 0.07 0.08 0.12 0.12 0.05 0.26 0.35 0.38 0.49 0.45 0.41 0.35 0.41 0.45 0.43 0.33 0.32 0.36 0.40 0.51
0.00 0.00 0.00 0.00 0.00 0.00 0.00 0.00 0.01 0.02 0.01 0.01 0.03 0.07 0.16 0.21 0.36 0.32 0.27 0.23 0.24 0.19 0.14 0.17 0.19 0.14 0.21 0.17 0.19 0.28 0.24 0.33 0.36 0.17 0.25 0.20 0.22 0.20 0.31 0.31 0.27 0.32 0.33
0.00 0.00 0.00 0.00 0.00 0.00 0.00 0.00 0.01 0.02 0.01 0.02 0.02 0.02 0.01 0.00 0.01 0.04 0.19 0.28 0.54 0.70 0.56 0.29 0.26 0.24 0.19 0.30 0.27 0.29 0.32 0.32 0.33 0.22 0.21 0.09 0.08 0.09 0.20 0.28 0.31 0.22 0.21
0.00 0.00 0.00 0.00 0.00 0.00 0.00 0.00 0.05 0.04 0.01 0.03 0.02 0.04 0.03 0.04 0.06 0.05 0.06 0.10 0.23 0.27 0.48 0.50 0.43 0.46 0.34 0.34 0.38 0.36 0.37 0.28 0.29 0.16 0.16 0.16 0.12 0.20 0.20 0.26 0.27 0.27 0.16
0.01 0.00 0.00 0.00 0.00 0.08 0.04 0.00 0.03 0.04 0.05 0.04 0.04 0.05 0.03 0.05 0.05 0.03 0.04 0.07 0.08 0.09 0.10 0.23 0.21 0.30 0.42 0.46 0.58 0.54 0.42 0.32 0.30 0.29 0.18 0.15 0.15 0.16 0.23 0.25 0.23 0.24 0.23
0.02 0.01 0.01 0.01 0.00 0.05 0.19 0.13 0.14 0.05 0.03 0.03 0.05 0.06 0.08 0.06 0.06 0.05 0.06 0.11 0.08 0.07 0.04 0.11 0.17 0.20 0.26 0.28 0.38 0.47 0.55 0.42 0.33 0.32 0.24 0.17 0.16 0.21 0.28 0.39 0.37 0.29 0.20
0.05 0.02 0.03 0.03 0.02 0.02 0.11 0.24 0.36 0.28 0.21 0.20 0.20 0.21 0.19 0.18 0.17 0.15 0.20 0.13 0.04 0.04 0.08 0.08 0.20 0.27 0.42 0.51 0.44 0.47 0.44 0.52 0.43 0.35 0.31 0.19 0.19 0.24 0.23 0.23 0.30 0.32 0.24
0.10 0.06 0.06 0.08 0.07 0.08 0.27 0.30 0.27 0.21 0.31 0.43 0.34 0.32 0.31 0.32 0.34 0.30 0.42 0.37 0.19 0.14 0.15 0.08 0.21 0.35 0.43 0.59 0.68 0.53 0.49 0.49 0.54 0.43 0.38 0.27 0.19 0.21 0.24 0.23 0.21 0.22 0.26
0.02 0.03 0.06 0.14 0.22 0.56 0.87 0.98 0.87 0.67 0.57 0.60 0.56 0.50 0.44 0.40 0.44 0.38 0.42 0.38 0.34 0.23 0.21 0.16 0.21 0.23 0.45 0.63 0.75 0.63 0.57 0.64 0.60 0.60 0.54 0.38 0.26 0.21 0.18 0.17 0.13 0.15 0.18
0.01 0.02 0.07 0.15 0.35 0.48 0.75 0.93 1.10 1.28 1.04 0.91 0.89 0.73 0.52 0.47 0.39 0.39 0.33 0.35 0.24 0.27 0.20 0.18 0.15 0.19 0.31 0.58 0.85 0.94 0.67 0.66 0.72 0.66 0.62 0.48 0.35 0.35 0.28 0.22 0.20 0.16 0.15
0.00 0.00 0.02 0.06 0.26 0.46 0.62 0.75 1.01 1.57 1.29 0.82 0.86 0.75 0.62 0.64 0.46 0.36 0.35 0.24 0.18 0.19 0.17 0.08 0.11 0.09 0.15 0.34 0.95 1.23 1.11 0.68 0.61 0.72 0.73 0.73 0.53 0.41 0.38 0.33 0.30 0.23 0.19
0.00 0.02 0.02 0.02 0.07 0.16 0.31 0.41 0.71 1.06 1.05 1.11 0.95 0.78 0.63 0.62 0.53 0.47 0.39 0.33 0.16 0.08 0.10 0.06 0.06 0.06 0.06 0.12 0.38 0.77 0.99 0.83 0.67 0.66 0.77 0.71 0.65 0.56 0.45 0.38 0.36 0.31 0.26
0.00 0.02 0.03 0.03 0.04 0.08 0.13 0.26 0.72 0.81 0.77 1.18 1.19 1.06 0.98 0.84 0.60 0.51 0.48 0.39 0.32 0.09 0.08 0.07 0.09 0.07 0.04 0.14 0.23 0.30 0.50 0.72 0.79 0.78 0.81 0.85 0.75 0.57 0.44 0.38 0.37 0.39 0.39
0.01 0.02 0.04 0.05 0.06 0.07 0.07 0.14 0.26 0.71 0.82 1.15 1.65 1.55 1.18 1.10 1.19 1.26 0.99 0.44 0.40 0.20 0.10 0.06 0.04 0.07 0.03 0.05 0.11 0.21 0.30 0.52 0.74 0.80 0.82 0.68 0.77 0.76 0.72 0.57 0.47 0.42 0.40
0.02 0.03 0.05 0.05 0.07 0.07 0.08 0.11 0.17 0.24 0.47 0.60 0.98 1.40 1.79 1.07 1.07 1.31 1.41 0.90 0.49 0.38 0.13 0.09 0.07 0.06 0.04 0.11 0.10 0.12 0.15 0.20 0.33 0.46 0.58 0.76 0.77 0.75 0.84 0.89 0.85 0.73 0.60
0.08 0.05 0.07 0.08 0.10 0.12 0.13 0.14 0.20 0.22 0.33 0.46 0.86 1.02 1.29 1.67 1.20 1.28 1.43 1.63 1.16 0.78 0.57 0.23 0.11 0.08 0.06 0.12 0.11 0.14 0.08 0.13 0.10 0.16 0.29 0.43 0.83 0.90 0.70 0.84 0.87 0.94 0.99
0.12 0.16 0.13 0.16 0.15 0.16 0.18 0.18 0.20 0.25 0.32 0.45 0.60 0.74 0.69 1.17 1.45 1.06 1.01 1.09 1.21 1.21 1.01 0.49 0.22 0.10 0.09 0.14 0.15 0.18 0.05 0.12 0.16 0.12 0.12 0.19 0.33 0.73 0.82 0.75 0.91 0.97 0.95
0.22 0.26 0.29 0.22 0.28 0.25 0.24 0.23 0.25 0.30 0.34 0.53 0.71 0.85 0.91 0.93 1.03 1.27 1.08 1.08 0.96 0.94 1.00 0.88 0.54 0.30 0.18 0.24 0.21 0.17 0.03 0.05 0.10 0.15 0.17 0.15 0.10 0.28 0.42 0.38 0.47 0.62 0.79
0.21 0.22 0.37 0.47 0.39 0.44 0.36 0.28 0.30 0.30 0.40 0.49 0.60 0.71 0.87 1.02 1.18 1.37 1.49 1.44 1.35 1.10 0.94 0.87 0.72 0.61 0.32 0.33 0.26 0.20 0.07 0.11 0.08 0.08 0.15 0.26 0.19 0.24 0.18 0.15 0.20 0.27 0.39
0.20 0.20 0.21 0.38 0.59 0.59 0.64 0.56 0.48 0.47 0.53 0.56 0.58 0.61 0.69 0.85 0.97 1.06 1.27 1.54 1.71 1.65 1.32 1.16 0.99 0.75 0.64 0.48 0.37 0.33 0.20 0.22 0.19 0.17 0.17 0.21 0.24 0.17 0.18 0.17 0.14 0.25 0.22
0.16 0.16 0.17 0.21 0.23 0.23 0.31 0.62 0.79 0.78 0.65 0.59 0.54 0.62 0.62 0.71 0.88 0.96 0.98 0.97 1.12 1.40 1.59 1.42 1.31 1.23 1.13 0.97 0.78 0.56 0.42 0.34 0.23 0.26 0.20 0.27 0.24 0.19 0.17 0.15 0.23 0.20 0.11
0.11 0.07 0.09 0.06 0.05 0.07 0.08 0.14 0.28 0.45 0.52 0.57 0.63 0.58 0.57 0.57 0.53 0.56 0.68 0.80 0.85 0.80 0.82 0.90 1.00 1.08 1.11 1.12 1.04 0.95 0.80 0.64 0.47 0.47 0.47 0.38 0.22 0.14 0.14 0.16 0.11 0.05 0.02
0.14 0.06 0.02 0.01 0.03 0.05 0.06 0.05 0.02 0.03 0.07 0.11 0.15 0.20 0.25 0.28 0.29 0.31 0.34 0.37 0.46 0.54 0.62 0.64 0.63 0.64 0.61 0.61 0.62 0.59 0.59 0.56 0.53 0.52 0.46 0.37 0.28 0.22 0.20 0.14 0.13 0.11 0.09
0.19 0.12 0.08 0.07 0.09 0.05 0.04 0.06 0.05 0.01 0.01 0.03 0.05 0.07 0.10 0.12 0.15 0.16 0.18 0.18 0.24 0.21 0.24 0.31 0.34 0.38 0.44 0.53 0.47 0.41 0.38 0.37 0.38 0.38 0.39 0.39 0.36 0.33 0.31 0.28 0.26 0.22 0.18
0.16 0.15 0.15 0.13 0.08 0.04 0.04 0.04 0.03 0.02 0.01 0.01 0.01 0.01 0.01 0.02 0.03 0.03 0.06 0.07 0.09 0.06 0.05 0.07 0.08 0.12 0.14 0.13 0.12 0.12 0.12 0.12 0.12 0.11 0.14 0.16 0.17 0.17 0.16 0.15 0.14 0.13 0.12

GFSMW_prec_precacc24_108.txt.gz
Total_Precipitation_Accumulation
0.00 0.00 0.00 0.00 0.00 0.00 0.00 0.00 0.01 0.04 0.07 0.06 0.07 0.07 0.01 0.03 0.05 0.04 0.09 0.03 0.09 0.07 0.06 0.04 0.04 0.05 0.06 0.10 0.08 0.16 0.26 0.41 0.57 0.56 0.49 0.37 0.24 0.25 0.38 0.50 0.47 0.68 0.66
0.00 0.00 0.00 0.00 0.00 0.00 0.00 0.00 0.00 0.02 0.01 0.02 0.05 0.06 0.11 0.12 0.22 0.20 0.20 0.13 0.07 0.16 0.11 0.09 0.10 0.13 0.10 0.04 0.07 0.15 0.27 0.38 0.42 0.42 0.35 0.41 0.44 0.43 0.35 0.33 0.36 0.40 0.51
0.00 0.00 0.00 0.00 0.00 0.00 0.00 0.00 0.01 0.02 0.01 0.01 0.03 0.07 0.16 0.21 0.36 0.31 0.25 0.23 0.24 0.21 0.14 0.09 0.14 0.31 0.52 0.46 0.15 0.12 0.16 0.28 0.33 0.17 0.25 0.20 0.21 0.20 0.31 0.32 0.28 0.32 0.33
0.00 0.00 0.00 0.00 0.00 0.00 0.00 0.00 0.01 0.01 0.01 0.02 0.02 0.02 0.01 0.00 0.01 0.04 0.18 0.27 0.52 0.69 0.57 0.32 0.29 0.30 0.28 0.35 0.39 0.24 0.24 0.27 0.31 0.21 0.21 0.09 0.08 0.09 0.19 0.28 0.31 0.22 0.21
0.00 0.00 0.00 0.00 0.00 0.00 0.00 0.00 0.05 0.04 0.01 0.03 0.02 0.04 0.03 0.04 0.06 0.04 0.05 0.09 0.23 0.27 0.48 0.51 0.40 0.39 0.31 0.28 0.37 0.33 0.28 0.24 0.26 0.16 0.16 0.16 0.13 0.20 0.20 0.26 0.28 0.28 0.16
0.01 0.00 0.00 0.00 0.00 0.08 0.04 0.00 0.02 0.02 0.05 0.04 0.04 0.05 0.03 0.05 0.05 0.02 0.03 0.07 0.10 0.16 0.17 0.29 0.19 0.20 0.34 0.36 0.52 0.66 0.48 0.36 0.32 0.29 0.17 0.14 0.15 0.16 0.23 0.25 0.22 0.24 0.23
0.02 0.01 0.01 0.01 0.00 0.05 0.19 0.13 0.14 0.05 0.03 0.03 0.05 0.06 0.08 0.06 0.06 0.04 0.06 0.14 0.25 0.31 0.30 0.22 0.12 0.09 0.12 0.20 0.26 0.46 0.69 0.55 0.38 0.34 0.23 0.17 0.16 0.21 0.28 0.40 0.38 0.28 0.20
0.04 0.02 0.03 0.03 0.02 0.02 0.11 0.24 0.36 0.28 0.21 0.20 0.20 0.21 0.20 0.19 0.17 0.15 0.19 0.15 0.10 0.12 0.30 0.32 0.19 0.17 0.26 0.45 0.52 0.59 0.53 0.58 0.62 0.46 0.37 0.23 0.21 0.26 0.23 0.23 0.33 0.33 0.24
0.09 0.05 0.06 0.08 0.07 0.08 0.27 0.30 0.27 0.20 0.31 0.43 0.34 0.32 0.32 0.35 0.37 0.32 0.42 0.36 0.23 0.19 0.21 0.11 0.24 0.34 0.44 0.47 0.68 0.55 0.52 0.50 0.54 0.48 0.49 0.38 0.23 0.23 0.24 0.22 0.21 0.21 0.25
0.02 0.02 0.04 0.13 0.21 0.54 0.81 0.94 0.87 0.65 0.56 0.58 0.55 0.50 0.45 0.43 0.47 0.43 0.47 0.41 0.36 0.30 0.27 0.19 0.20 0.23 0.42 0.57 0.65 0.56 0.54 0.66 0.69 0.75 0.73 0.50 0.29 0.22 0.18 0.17 0.13 0.15 0.17
0.01 0.00 0.03 0.11 0.26 0.43 0.63 0.80 1.09 1.24 1.03 0.88 0.88 0.73 0.52 0.50 0.43 0.45 0.47 0.50 0.41 0.41 0.33 0.30 0.22 0.21 0.29 0.58 0.82 0.89 0.76 0.84 0.88 0.82 0.76 0.57 0.40 0.36 0.28 0.22 0.19 0.15 0.15
0.00 0.00 0.01 0.04 0.17 0.34 0.54 0.71 1.00 1.55 1.27 0.82 0.84 0.74 0.62 0.65 0.48 0.47 0.51 0.43 0.35 0.45 0.49 0.31 0.19 0.18 0.17 0.36 0.92 1.18 1.06 0.86 0.92 1.09 0.96 0.84 0.58 0.42 0.38 0.33 0.30 0.23 0.19
0.00 0.00 0.00 0.01 0.04 0.13 0.28 0.38 0.67 1.04 1.04 1.08 0.92 0.76 0.62 0.62 0.53 0.48 0.44 0.42 0.29 0.29 0.47 0.49 0.42 0.31 0.15 0.13 0.37 0.76 1.04 0.88 0.75 0.96 1.21 0.85 0.68 0.55 0.44 0.38 0.37 0.31 0.27
0.00 0.01 0.01 0.00 0.01 0.04 0.10 0.20 0.66 0.77 0.75 1.15 1.18 1.06 0.99 0.84 0.61 0.53 0.51 0.43 0.37 0.17 0.19 0.33 0.40 0.39 0.21 0.15 0.21 0.28 0.55 0.92 0.84 0.79 0.79 0.85 0.76 0.58 0.45 0.38 0.37 0.40 0.41
0.00 0.00 0.01 0.01 0.01 0.02 0.03 0.07 0.18 0.65 0.80 1.11 1.59 1.54 1.24 1.17 1.29 1.37 1.24 0.70 0.56 0.38 0.28 0.21 0.20 0.30 0.17 0.12 0.15 0.21 0.31 0.60 0.86 0.80 0.79 0.65 0.72 0.72 0.67 0.55 0.46 0.42 0.41
0.01 0.01 0.00 0.01 0.02 0.03 0.03 0.05 0.10 0.17 0.44 0.59 0.97 1.40 1.79 1.09 1.12 1.40 1.58 1.16 0.76 0.77 0.44 0.48 0.26 0.20 0.12 0.18 0.17 0.17 0.18 0.21 0.34 0.55 0.56 0.74 0.77 0.75 0.82 0.87 0.84 0.74 0.60
0.02 0.02 0.02 0.03 0.05 0.07 0.08 0.09 0.15 0.16 0.28 0.43 0.85 1.01 1.27 1.67 1.26 1.36 1.49 1.72 1.35 0.98 0.95 0.56 0.36 0.21 0.16 0.25 0.24 0.18 0.10 0.15 0.12 0.18 0.31 0.44 0.82 0.90 0.70 0.81 0.84 0.92 0.98
0.07 0.06 0.08 0.08 0.10 0.12 0.14 0.13 0.14 0.17 0.26 0.41 0.58 0.74 0.67 1.15 1.49 1.16 1.07 1.10 1.22 1.24 1.07 0.68 0.50 0.32 0.20 0.24 0.24 0.28 0.08 0.14 0.17 0.12 0.11 0.18 0.31 0.68 0.78 0.73 0.87 0.92 0.94
0.18 0.13 0.12 0.13 0.18 0.20 0.21 0.19 0.17 0.20 0.23 0.41 0.64 0.84 0.95 0.95 1.01 1.27 1.10 1.08 0.89 0.87 1.02 0.94 0.63 0.49 0.38 0.35 0.31 0.25 0.05 0.04 0.08 0.13 0.16 0.16 0.09 0.26 0.40 0.38 0.47 0.63 0.81
0.17 0.14 0.17 0.19 0.21 0.32 0.31 0.24 0.22 0.22 0.28 0.41 0.53 0.68 0.83 1.04 1.22 1.41 1.51 1.46 1.37 1.14 0.97 0.99 0.95 0.95 0.71 0.72 0.57 0.44 0.18 0.13 0.09 0.08 0.16 0.27 0.19 0.24 0.18 0.15 0.20 0.27 0.39
0.17 0.16 0.15 0.19 0.19 0.17 0.25 0.33 0.39 0.41 0.48 0.45 0.49 0.51 0.58 0.75 0.95 1.07 1.29 1.57 1.75 1.70 1.41 1.27 1.18 1.02 1.02 1.00 0.91 0.71 0.43 0.35 0.26 0.19 0.18 0.23 0.26 0.19 0.20 0.18 0.15 0.27 0.22
0.16 0.12 0.11 0.11 0.10 0.08 0.10 0.21 0.36 0.48 0.49 0.49 0.45 0.54 0.58 0.63 0.76 0.93 0.97 0.98 1.13 1.43 1.66 1.53 1.48 1.47 1.47 1.44 1.27 1.02 0.78 0.57 0.36 0.33 0.23 0.31 0.29 0.23 0.20 0.18 0.28 0.24 0.12
0.11 0.07 0.05 0.04 0.04 0.05 0.07 0.12 0.22 0.30 0.32 0.35 0.42 0.42 0.45 0.51 0.50 0.53 0.67 0.78 0.84 0.80 0.84 0.95 1.09 1.23 1.32 1.40 1.38 1.31 1.16 0.96 0.72 0.69 0.65 0.50 0.28 0.17 0.18 0.20 0.15 0.08 0.04
0.08 0.05 0.02 0.01 0.03 0.05 0.06 0.05 0.02 0.03 0.07 0.11 0.15 0.20 0.25 0.26 0.26 0.28 0.31 0.34 0.42 0.50 0.58 0.60 0.61 0.67 0.68 0.73 0.78 0.78 0.79 0.79 0.77 0.75 0.68 0.58 0.47 0.38 0.35 0.27 0.22 0.18 0.15
0.08 0.06 0.05 0.06 0.08 0.05 0.04 0.06 0.05 0.01 0.01 0.03 0.05 0.07 0.10 0.12 0.15 0.16 0.18 0.18 0.23 0.21 0.24 0.31 0.34 0.38 0.44 0.55 0.50 0.47 0.46 0.46 0.48 0.50 0.51 0.48 0.46 0.44 0.43 0.40 0.38 0.34 0.30
0.07 0.06 0.07 0.09 0.07 0.04 0.04 0.04 0.03 0.02 0.01 0.01 0.01 0.01 0.01 0.02 0.03 0.04 0.06 0.07 0.09 0.06 0.05 0.07 0.08 0.11 0.14 0.13 0.12 0.12 0.12 0.13 0.14 0.14 0.18 0.22 0.22 0.22 0.22 0.21 0.22 0.21 0.20

GFSMW_prec_precacc24_111.txt.gz
Total_Precipitation_Accumulation
0.00 0.00 0.00 0.00 0.00 0.00 0.00 0.00 0.01 0.02 0.05 0.06 0.07 0.07 0.01 0.02 0.05 0.04 0.09 0.03 0.18 0.13 0.02 0.02 0.03 0.04 0.06 0.10 0.07 0.08 0.05 0.09 0.26 0.47 0.48 0.37 0.24 0.26 0.38 0.50 0.47 0.68 0.66
0.00 0.00 0.00 0.00 0.00 0.00 0.00 0.00 0.00 0.00 0.01 0.02 0.05 0.06 0.11 0.12 0.22 0.20 0.20 0.13 0.07 0.18 0.11 0.08 0.08 0.13 0.21 0.15 0.11 0.20 0.14 0.16 0.31 0.41 0.35 0.40 0.44 0.43 0.35 0.33 0.37 0.40 0.51
0.00 0.00 0.00 0.00 0.00 0.00 0.00 0.00 0.00 0.00 0.01 0.01 0.03 0.07 0.16 0.21 0.36 0.31 0.25 0.23 0.24 0.21 0.17 0.13 0.17 0.37 0.78 0.92 0.91 0.95 0.83 0.58 0.43 0.26 0.30 0.21 0.21 0.20 0.31 0.33 0.28 0.32 0.33
0.01 0.00 0.00 0.00 0.00 0.00 0.00 0.00 0.00 0.00 0.01 0.02 0.02 0.02 0.01 0.00 0.01 0.04 0.17 0.26 0.52 0.70 0.59 0.36 0.39 0.36 0.43 0.51 0.64 0.75 0.82 0.88 0.47 0.38 0.27 0.10 0.08 0.09 0.19 0.28 0.32 0.23 0.21
0.00 0.00 0.00 0.00 0.00 0.00 0.00 0.00 0.00 0.00 0.01 0.03 0.02 0.04 0.03 0.04 0.06 0.04 0.05 0.09 0.22 0.28 0.54 0.61 0.51 0.48 0.41 0.33 0.31 0.27 0.24 0.25 0.36 0.31 0.21 0.19 0.13 0.20 0.20 0.26 0.28 0.28 0.16
0.01 0.00 0.00 0.00 0.00 0.08 0.04 0.00 0.00 0.01 0.05 0.04 0.04 0.05 0.03 0.05 0.05 0.02 0.03 0.06 0.10 0.16 0.22 0.45 0.36 0.38 0.50 0.44 0.49 0.61 0.50 0.37 0.29 0.30 0.19 0.15 0.16 0.16 0.23 0.25 0.22 0.24 0.23
0.02 0.01 0.01 0.01 0.00 0.03 0.17 0.13 0.12 0.03 0.03 0.03 0.05 0.06 0.08 0.06 0.06 0.04 0.06 0.13 0.25 0.31 0.32 0.45 0.40 0.31 0.37 0.38 0.31 0.44 0.85 0.91 0.54 0.45 0.32 0.20 0.17 0.21 0.29 0.41 0.38 0.28 0.20
0.03 0.02 0.03 0.03 0.02 0.01 0.09 0.22 0.31 0.24 0.19 0.19 0.20 0.21 0.20 0.19 0.17 0.15 0.19 0.15 0.10 0.12 0.32 0.64 0.61 0.48 0.43 0.51 0.67 0.71 0.69 0.95 1.06 0.60 0.41 0.24 0.19 0.25 0.23 0.24 0.35 0.32 0.23
0.08 0.04 0.05 0.08 0.06 0.04 0.20 0.25 0.21 0.15 0.26 0.38 0.33 0.31 0.31 0.36 0.37 0.33 0.43 0.37 0.24 0.19 0.22 0.18 0.39 0.49 0.48 0.46 0.76 0.68 0.60 0.58 0.84 0.77 0.53 0.41 0.26 0.25 0.28 0.24 0.21 0.21 0.25
0.02 0.02 0.03 0.10 0.11 0.14 0.25 0.46 0.59 0.52 0.50 0.54 0.52 0.48 0.43 0.43 0.47 0.44 0.49 0.43 0.37 0.31 0.29 0.22 0.39 0.45 0.57 0.60 0.56 0.52 0.51 0.63 0.77 0.97 0.95 0.58 0.37 0.35 0.32 0.29 0.20 0.16 0.17
0.01 0.00 0.01 0.05 0.13 0.19 0.37 0.52 0.78 1.05 1.00 0.85 0.84 0.70 0.49 0.49 0.43 0.45 0.47 0.53 0.46 0.46 0.39 0.37 0.47 0.37 0.47 0.66 0.74 0.69 0.68 0.80 0.98 0.97 0.90 0.69 0.52 0.53 0.42 0.34 0.31 0.19 0.15
0.00 0.00 0.00 0.02 0.10 0.21 0.34 0.50 0.79 1.37 1.20 0.80 0.77 0.63 0.58 0.63 0.47 0.46 0.51 0.43 0.37 0.47 0.58 0.46 0.51 0.43 0.35 0.44 0.94 1.06 0.99 0.87 1.08 1.30 1.17 1.05 0.81 0.60 0.52 0.40 0.34 0.26 0.20
0.00 0.00 0.00 0.00 0.02 0.11 0.24 0.35 0.62 0.94 0.95 1.04 0.83 0.67 0.53 0.60 0.52 0.47 0.44 0.42 0.29 0.30 0.53 0.60 0.63 0.69 0.46 0.34 0.41 0.72 1.04 0.89 0.95 1.04 1.25 1.12 0.90 0.69 0.52 0.43 0.39 0.33 0.27
0.00 0.00 0.00 0.00 0.00 0.02 0.09 0.18 0.62 0.70 0.70 1.09 1.08 0.97 0.92 0.82 0.60 0.52 0.50 0.42 0.37 0.17 0.25 0.47 0.56 0.81 0.83 0.71 0.37 0.35 0.57 0.88 0.86 0.82 0.78 0.89 0.83 0.70 0.61 0.47 0.42 0.43 0.44
0.00 0.00 0.00 0.00 0.00 0.00 0.01 0.03 0.14 0.59 0.74 1.03 1.48 1.43 1.18 1.14 1.27 1.36 1.23 0.70 0.56 0.38 0.29 0.25 0.28 0.57 0.88 0.45 0.33 0.27 0.32 0.62 0.79 0.67 0.72 0.63 0.74 0.79 0.77 0.63 0.50 0.44 0.43
0.01 0.00 0.00 0.00 0.00 0.01 0.02 0.03 0.06 0.11 0.38 0.56 0.93 1.36 1.77 1.07 1.11 1.39 1.56 1.15 0.75 0.78 0.52 0.56 0.38 0.29 0.47 0.59 0.34 0.41 0.28 0.32 0.33 0.50 0.54 0.72 0.76 0.78 0.85 0.88 0.84 0.75 0.62
0.02 0.02 0.02 0.02 0.03 0.05 0.07 0.08 0.12 0.12 0.20 0.38 0.84 0.99 1.26 1.67 1.25 1.35 1.48 1.72 1.35 0.98 0.97 0.63 0.51 0.40 0.34 0.66 0.46 0.47 0.25 0.23 0.15 0.18 0.38 0.42 0.77 0.89 0.71 0.83 0.85 0.93 0.98
0.07 0.05 0.04 0.05 0.07 0.09 0.11 0.10 0.13 0.12 0.20 0.35 0.52 0.72 0.66 1.15 1.49 1.15 1.08 1.12 1.25 1.28 1.12 0.78 0.58 0.42 0.39 0.42 0.70 0.60 0.25 0.20 0.22 0.17 0.15 0.20 0.32 0.68 0.79 0.73 0.85 0.88 0.89
0.18 0.13 0.10 0.11 0.14 0.16 0.16 0.14 0.12 0.13 0.14 0.31 0.56 0.78 0.91 0.95 1.02 1.26 1.09 1.08 0.91 0.89 1.04 0.95 0.64 0.54 0.48 0.57 0.57 0.57 0.31 0.21 0.13 0.16 0.19 0.19 0.12 0.26 0.39 0.37 0.46 0.61 0.80
0.16 0.14 0.17 0.19 0.20 0.23 0.21 0.17 0.15 0.13 0.16 0.23 0.39 0.56 0.70 0.94 1.18 1.38 1.48 1.42 1.34 1.14 0.94 0.91 0.88 0.94 0.79 0.84 0.78 0.79 0.48 0.27 0.21 0.17 0.19 0.32 0.24 0.27 0.19 0.16 0.20 0.27 0.39
0.18 0.18 0.19 0.24 0.23 0.14 0.10 0.16 0.20 0.22 0.27 0.24 0.19 0.23 0.35 0.55 0.75 0.95 1.23 1.52 1.73 1.69 1.39 1.25 1.15 1.02 1.11 1.18 1.20 1.04 0.76 0.67 0.46 0.32 0.27 0.29 0.32 0.22 0.21 0.19 0.16 0.28 0.23
0.17 0.15 0.15 0.14 0.09 0.04 0.03 0.05 0.11 0.21 0.22 0.23 0.21 0.20 0.22 0.29 0.43 0.57 0.68 0.82 1.07 1.41 1.66 1.53 1.49 1.50 1.51 1.53 1.47 1.36 1.25 1.08 0.79 0.70 0.47 0.45 0.35 0.26 0.22 0.20 0.31 0.27 0.14
0.14 0.08 0.04 0.03 0.03 0.03 0.03 0.05 0.10 0.08 0.10 0.13 0.15 0.17 0.17 0.19 0.25 0.30 0.38 0.47 0.56 0.64 0.79 0.94 1.09 1.23 1.34 1.45 1.47 1.47 1.39 1.25 1.06 1.07 1.03 0.80 0.45 0.28 0.25 0.25 0.18 0.10 0.05
0.04 0.02 0.01 0.01 0.03 0.05 0.06 0.04 0.02 0.02 0.03 0.05 0.08 0.12 0.14 0.15 0.15 0.15 0.20 0.24 0.31 0.38 0.49 0.55 0.58 0.63 0.63 0.69 0.77 0.81 0.87 0.92 0.92 0.93 0.87 0.78 0.66 0.57 0.54 0.41 0.30 0.22 0.19
0.04 0.02 0.02 0.03 0.04 0.04 0.03 0.06 0.05 0.01 0.01 0.03 0.05 0.07 0.09 0.12 0.13 0.15 0.16 0.17 0.22 0.20 0.23 0.31 0.33 0.37 0.43 0.53 0.49 0.46 0.46 0.48 0.54 0.58 0.61 0.60 0.59 0.58 0.59 0.57 0.55 0.50 0.43
0.03 0.02 0.03 0.04 0.05 0.03 0.03 0.04 0.03 0.02 0.01 0.01 0.01 0.01 0.01 0.02 0.03 0.04 0.06 0.07 0.09 0.06 0.05 0.07 0.08 0.12 0.14 0.13 0.12 0.12 0.12 0.13 0.14 0.15 0.19 0.24 0.27 0.29 0.31 0.32 0.33 0.31 0.30

GFSMW_prec_precacc24_114.txt.gz
Total_Precipitation_Accumulation
0.00 0.00 0.00 0.00 0.00 0.00 0.00 0.00 0.00 0.00 0.00 0.03 0.03 0.04 0.01 0.02 0.04 0.04 0.09 0.03 0.18 0.13 0.02 0.03 0.05 0.13 0.16 0.12 0.25 0.36 0.25 0.16 0.12 0.17 0.21 0.30 0.24 0.26 0.39 0.51 0.47 0.68 0.66
0.00 0.00 0.00 0.00 0.00 0.00 0.00 0.00 0.00 0.00 0.00 0.00 0.02 0.06 0.09 0.11 0.22 0.20 0.20 0.13 0.07 0.17 0.10 0.08 0.08 0.12 0.24 0.34 0.33 0.59 0.63 0.42 0.34 0.31 0.27 0.38 0.44 0.43 0.35 0.34 0.37 0.41 0.51
0.00 0.00 0.00 0.00 0.00 0.00 0.00 0.00 0.00 0.00 0.00 0.00 0.01 0.05 0.15 0.20 0.36 0.31 0.25 0.23 0.24 0.21 0.16 0.12 0.18 0.37 0.77 0.94 1.06 1.18 1.19 0.94 0.83 0.70 0.72 0.47 0.29 0.24 0.31 0.33 0.28 0.33 0.33
0.01 0.00 0.00 0.00 0.00 0.00 0.00 0.00 0.00 0.00 0.00 0.00 0.01 0.02 0.01 0.00 0.01 0.04 0.17 0.26 0.52 0.69 0.58 0.36 0.40 0.37 0.44 0.53 0.69 0.86 1.02 1.18 1.22 1.36 1.41 0.95 0.36 0.17 0.21 0.29 0.32 0.23 0.21
0.04 0.00 0.00 0.00 0.00 0.00 0.00 0.00 0.00 0.00 0.00 0.00 0.01 0.03 0.03 0.04 0.06 0.04 0.05 0.09 0.22 0.28 0.53 0.60 0.51 0.48 0.43 0.34 0.34 0.27 0.24 0.23 0.33 0.29 0.32 0.46 0.31 0.27 0.22 0.26 0.28 0.28 0.16
0.03 0.00 0.00 0.00 0.00 0.00 0.00 0.00 0.00 0.00 0.00 0.01 0.03 0.04 0.03 0.05 0.05 0.02 0.03 0.06 0.09 0.15 0.22 0.44 0.36 0.38 0.49 0.46 0.55 0.61 0.46 0.31 0.23 0.24 0.16 0.15 0.15 0.17 0.23 0.26 0.23 0.24 0.23
0.02 0.01 0.01 0.01 0.00 0.00 0.01 0.02 0.03 0.01 0.01 0.01 0.03 0.06 0.08 0.06 0.06 0.04 0.06 0.13 0.25 0.31 0.32 0.44 0.39 0.31 0.36 0.37 0.38 0.53 0.80 0.86 0.53 0.42 0.32 0.24 0.20 0.25 0.34 0.44 0.40 0.28 0.20
0.03 0.00 0.02 0.03 0.02 0.01 0.04 0.10 0.09 0.14 0.14 0.16 0.18 0.19 0.20 0.19 0.17 0.15 0.19 0.14 0.10 0.11 0.31 0.63 0.61 0.48 0.42 0.47 0.60 0.64 0.68 0.93 1.12 0.59 0.41 0.27 0.27 0.34 0.30 0.31 0.40 0.34 0.24
0.09 0.04 0.06 0.08 0.05 0.04 0.07 0.15 0.14 0.10 0.18 0.33 0.29 0.30 0.31 0.36 0.37 0.33 0.43 0.37 0.24 0.20 0.22 0.18 0.39 0.49 0.47 0.39 0.48 0.51 0.47 0.49 0.77 0.68 0.53 0.47 0.34 0.36 0.35 0.29 0.24 0.22 0.25
0.11 0.05 0.04 0.07 0.07 0.09 0.14 0.25 0.25 0.27 0.29 0.40 0.47 0.46 0.42 0.43 0.47 0.44 0.49 0.43 0.37 0.31 0.30 0.22 0.39 0.45 0.56 0.55 0.35 0.36 0.48 0.60 0.77 1.06 0.95 0.63 0.37 0.36 0.38 0.36 0.31 0.26 0.20
0.01 0.01 0.01 0.02 0.05 0.08 0.15 0.18 0.34 0.62 0.60 0.55 0.70 0.67 0.48 0.47 0.41 0.44 0.47 0.53 0.46 0.47 0.40 0.38 0.48 0.39 0.49 0.64 0.66 0.56 0.69 0.83 0.92 1.11 0.91 0.63 0.50 0.53 0.47 0.44 0.39 0.30 0.23
0.00 0.00 0.00 0.00 0.06 0.12 0.12 0.14 0.22 0.51 0.62 0.53 0.64 0.59 0.55 0.56 0.45 0.45 0.50 0.42 0.37 0.47 0.58 0.46 0.51 0.47 0.43 0.51 0.88 0.97 0.90 0.83 0.97 1.24 1.26 1.01 0.76 0.59 0.57 0.49 0.42 0.34 0.30
0.00 0.00 0.00 0.00 0.01 0.08 0.16 0.18 0.25 0.52 0.51 0.64 0.69 0.63 0.49 0.54 0.51 0.47 0.43 0.40 0.27 0.29 0.53 0.60 0.63 0.70 0.51 0.40 0.36 0.70 1.02 0.92 0.88 0.98 1.28 1.14 0.94 0.80 0.80 0.73 0.53 0.40 0.32
0.00 0.00 0.00 0.00 0.00 0.02 0.09 0.17 0.52 0.61 0.58 0.79 0.90 0.90 0.87 0.79 0.59 0.52 0.49 0.42 0.36 0.17 0.25 0.46 0.56 0.81 0.84 0.81 0.66 0.63 0.63 0.91 0.88 0.87 0.81 0.96 0.94 0.72 0.65 0.63 0.66 0.65 0.52
0.00 0.00 0.00 0.00 0.00 0.00 0.01 0.03 0.11 0.48 0.63 0.85 1.26 1.36 1.15 1.11 1.26 1.35 1.23 0.69 0.55 0.38 0.29 0.25 0.29 0.60 0.95 0.59 0.49 0.45 0.69 0.79 0.85 0.70 0.72 0.70 0.87 0.81 0.76 0.71 0.58 0.52 0.51
0.01 0.00 0.00 0.00 0.00 0.01 0.02 0.02 0.03 0.07 0.29 0.49 0.85 1.28 1.73 1.05 1.10 1.38 1.56 1.14 0.74 0.78 0.52 0.55 0.37 0.28 0.48 0.73 0.49 0.50 0.44 0.62 0.65 0.62 0.59 0.78 0.74 0.77 0.89 0.96 0.99 0.89 0.72
0.02 0.02 0.02 0.02 0.03 0.04 0.06 0.06 0.10 0.07 0.12 0.27 0.75 0.94 1.21 1.63 1.26 1.35 1.46 1.71 1.34 0.97 0.97 0.63 0.50 0.39 0.34 0.70 0.55 0.62 0.71 0.61 0.39 0.35 0.44 0.44 0.78 0.92 0.73 0.89 0.94 1.05 1.04
0.07 0.05 0.05 0.06 0.07 0.06 0.07 0.07 0.10 0.09 0.13 0.27 0.42 0.67 0.66 1.14 1.50 1.16 1.07 1.10 1.24 1.27 1.12 0.78 0.60 0.43 0.42 0.45 0.73 0.77 0.69 0.70 0.53 0.39 0.23 0.25 0.33 0.71 0.87 0.87 0.91 0.91 0.91
0.18 0.13 0.11 0.12 0.13 0.11 0.09 0.11 0.10 0.12 0.10 0.21 0.45 0.61 0.72 0.82 0.96 1.25 1.10 1.09 0.91 0.89 1.06 0.98 0.67 0.57 0.54 0.65 0.64 0.69 0.55 0.75 0.64 0.46 0.39 0.30 0.21 0.33 0.49 0.48 0.58 0.63 0.80
0.16 0.14 0.17 0.18 0.19 0.19 0.16 0.13 0.12 0.09 0.14 0.17 0.27 0.37 0.47 0.66 0.94 1.22 1.39 1.38 1.31 1.13 0.94 0.89 0.87 0.90 0.79 0.86 0.84 0.87 0.64 0.52 0.60 0.47 0.38 0.45 0.37 0.38 0.31 0.23 0.28 0.34 0.40
0.18 0.18 0.19 0.25 0.24 0.15 0.10 0.09 0.07 0.11 0.15 0.15 0.11 0.08 0.13 0.27 0.47 0.75 1.06 1.37 1.60 1.56 1.28 1.15 1.05 0.94 1.02 1.06 1.14 1.04 0.90 0.91 0.65 0.54 0.53 0.47 0.43 0.37 0.39 0.34 0.27 0.34 0.25
0.18 0.15 0.16 0.15 0.09 0.04 0.01 0.01 0.04 0.08 0.08 0.09 0.10 0.09 0.06 0.08 0.15 0.23 0.39 0.61 0.89 1.25 1.53 1.42 1.39 1.41 1.42 1.43 1.35 1.32 1.29 1.16 0.95 0.94 0.71 0.70 0.59 0.45 0.37 0.33 0.42 0.33 0.16
0.15 0.09 0.05 0.02 0.01 0.01 0.01 0.01 0.04 0.02 0.02 0.04 0.06 0.08 0.08 0.07 0.06 0.06 0.10 0.14 0.24 0.37 0.58 0.83 1.02 1.18 1.30 1.41 1.44 1.42 1.35 1.24 1.10 1.18 1.24 1.08 0.74 0.55 0.47 0.42 0.31 0.16 0.06
0.03 0.01 0.00 0.00 0.02 0.02 0.02 0.02 0.01 0.01 0.01 0.02 0.04 0.05 0.05 0.06 0.05 0.05 0.06 0.07 0.11 0.15 0.21 0.27 0.35 0.47 0.55 0.63 0.74 0.79 0.85 0.91 0.91 0.94 0.92 0.85 0.79 0.76 0.77 0.66 0.52 0.39 0.30
0.02 0.01 0.01 0.01 0.02 0.02 0.01 0.03 0.02 0.00 0.01 0.02 0.03 0.04 0.04 0.05 0.06 0.08 0.10 0.09 0.13 0.11 0.14 0.21 0.22 0.24 0.30 0.41 0.40 0.41 0.43 0.47 0.53 0.57 0.60 0.59 0.60 0.60 0.63 0.65 0.68 0.66 0.59
0.02 0.01 0.01 0.01 0.01 0.01 0.01 0.01 0.02 0.01 0.01 0.00 0.01 0.01 0.01 0.02 0.03 0.03 0.06 0.07 0.08 0.06 0.05 0.06 0.08 0.11 0.13 0.13 0.12 0.12 0.12 0.13 0.14 0.15 0.19 0.24 0.27 0.30 0.32 0.33 0.36 0.37 0.40

GFSMW_prec_precacc24_117.txt.gz
Total_Precipitation_Accumulation
0.00 0.00 0.00 0.00 0.00 0.00 0.00 0.00 0.00 0.00 0.00 0.01 0.01 0.02 0.01 0.01 0.02 0.03 0.09 0.03 0.18 0.13 0.02 0.03 0.09 0.23 0.26 0.23 0.41 0.63 0.56 0.51 0.45 0.36 0.32 0.26 0.25 0.35 0.45 0.56 0.52 0.70 0.66
0.00 0.00 0.00 0.00 0.00 0.00 0.00 0.00 0.00 0.00 0.00 0.00 0.00 0.00 0.00 0.01 0.14 0.18 0.20 0.13 0.07 0.17 0.10 0.07 0.07 0.11 0.24 0.35 0.34 0.64 0.71 0.54 0.58 0.74 0.56 0.40 0.31 0.42 0.54 0.55 0.51 0.46 0.53
0.00 0.00 0.00 0.00 0.00 0.00 0.00 0.00 0.00 0.00 0.00 0.00 0.00 0.01 0.06 0.14 0.24 0.29 0.25 0.23 0.24 0.21 0.16 0.11 0.16 0.36 0.76 0.93 1.04 1.16 1.25 0.97 0.88 0.83 0.89 0.77 0.69 0.73 0.80 0.83 0.61 0.42 0.36
0.01 0.00 0.00 0.00 0.00 0.00 0.00 0.00 0.00 0.00 0.00 0.00 0.00 0.00 0.00 0.00 0.01 0.04 0.17 0.26 0.52 0.69 0.58 0.35 0.38 0.35 0.43 0.50 0.65 0.82 0.99 1.21 1.23 1.36 1.38 1.17 0.98 0.71 0.55 0.65 0.72 0.37 0.24
0.08 0.05 0.02 0.01 0.01 0.01 0.00 0.00 0.00 0.00 0.00 0.00 0.00 0.00 0.00 0.00 0.00 0.01 0.05 0.09 0.22 0.28 0.53 0.59 0.50 0.47 0.42 0.33 0.32 0.24 0.22 0.23 0.34 0.30 0.27 0.38 0.33 0.27 0.23 0.22 0.28 0.31 0.17
0.04 0.05 0.07 0.05 0.03 0.01 0.00 0.00 0.00 0.00 0.00 0.00 0.00 0.01 0.01 0.00 0.01 0.00 0.03 0.06 0.09 0.15 0.22 0.44 0.36 0.37 0.49 0.45 0.53 0.59 0.45 0.30 0.22 0.20 0.16 0.12 0.09 0.07 0.14 0.20 0.22 0.25 0.23
0.12 0.05 0.01 0.01 0.03 0.02 0.00 0.00 0.01 0.00 0.00 0.01 0.01 0.01 0.01 0.02 0.02 0.02 0.05 0.13 0.25 0.31 0.31 0.44 0.39 0.30 0.35 0.36 0.36 0.52 0.80 0.86 0.50 0.34 0.29 0.23 0.17 0.18 0.25 0.38 0.38 0.29 0.20
0.33 0.18 0.06 0.02 0.01 0.01 0.01 0.02 0.04 0.03 0.04 0.05 0.05 0.09 0.14 0.17 0.15 0.14 0.19 0.14 0.10 0.11 0.31 0.63 0.60 0.48 0.41 0.45 0.59 0.63 0.67 0.89 1.03 0.49 0.32 0.26 0.23 0.29 0.27 0.29 0.36 0.32 0.23
0.38 0.35 0.21 0.07 0.03 0.03 0.03 0.05 0.06 0.07 0.11 0.16 0.14 0.16 0.24 0.33 0.36 0.32 0.43 0.37 0.24 0.20 0.22 0.18 0.39 0.48 0.46 0.37 0.45 0.45 0.41 0.43 0.64 0.58 0.39 0.42 0.30 0.34 0.37 0.32 0.29 0.26 0.25
0.41 0.29 0.19 0.11 0.06 0.06 0.06 0.13 0.12 0.14 0.19 0.27 0.29 0.28 0.31 0.35 0.45 0.44 0.49 0.43 0.37 0.31 0.30 0.22 0.39 0.45 0.56 0.54 0.33 0.25 0.32 0.37 0.57 0.85 0.78 0.52 0.31 0.34 0.45 0.43 0.39 0.34 0.24
0.11 0.11 0.10 0.07 0.05 0.06 0.09 0.11 0.16 0.26 0.31 0.33 0.47 0.41 0.35 0.38 0.37 0.43 0.47 0.53 0.46 0.47 0.40 0.38 0.48 0.39 0.49 0.65 0.64 0.44 0.54 0.59 0.71 0.91 0.71 0.48 0.47 0.51 0.57 0.62 0.54 0.40 0.32
0.04 0.03 0.02 0.01 0.01 0.04 0.05 0.07 0.13 0.31 0.30 0.24 0.37 0.36 0.42 0.50 0.42 0.44 0.50 0.42 0.37 0.47 0.58 0.46 0.51 0.47 0.43 0.51 0.85 0.81 0.64 0.59 0.77 1.07 1.14 0.86 0.69 0.63 0.63 0.62 0.55 0.39 0.40
0.00 0.00 0.00 0.00 0.00 0.05 0.07 0.09 0.12 0.23 0.27 0.27 0.36 0.37 0.37 0.50 0.49 0.46 0.42 0.40 0.27 0.29 0.52 0.59 0.63 0.70 0.51 0.40 0.34 0.60 0.83 0.67 0.70 0.82 1.07 0.96 0.84 0.73 0.74 0.70 0.55 0.46 0.37
0.00 0.00 0.00 0.00 0.00 0.01 0.05 0.09 0.23 0.31 0.50 0.47 0.36 0.49 0.74 0.75 0.57 0.51 0.49 0.42 0.36 0.16 0.24 0.46 0.56 0.81 0.84 0.79 0.62 0.57 0.50 0.72 0.70 0.67 0.60 0.78 0.82 0.63 0.56 0.56 0.63 0.67 0.58
0.00 0.00 0.00 0.00 0.00 0.00 0.01 0.02 0.09 0.25 0.40 0.62 0.60 0.55 0.85 1.07 1.26 1.35 1.23 0.69 0.55 0.38 0.28 0.25 0.28 0.59 0.95 0.60 0.47 0.38 0.58 0.62 0.72 0.78 0.83 0.72 0.90 0.87 0.76 0.65 0.52 0.52 0.58
0.01 0.00 0.00 0.00 0.00 0.01 0.02 0.02 0.03 0.04 0.15 0.27 0.33 0.50 1.09 0.98 1.09 1.38 1.56 1.14 0.74 0.78 0.52 0.55 0.37 0.27 0.49 0.73 0.50 0.50 0.44 0.63 0.75 0.75 0.73 1.13 1.32 0.95 0.89 0.90 0.90 0.81 0.67
0.02 0.02 0.02 0.02 0.03 0.04 0.06 0.07 0.11 0.06 0.06 0.16 0.50 0.69 0.81 1.38 1.19 1.33 1.47 1.71 1.35 0.97 0.96 0.63 0.50 0.39 0.35 0.71 0.54 0.64 0.75 0.63 0.47 0.59 0.67 0.65 1.18 1.34 0.93 0.86 0.93 1.13 1.23
0.07 0.05 0.05 0.06 0.07 0.06 0.06 0.08 0.09 0.08 0.07 0.12 0.26 0.37 0.42 0.91 1.44 1.12 1.06 1.09 1.25 1.27 1.12 0.79 0.61 0.44 0.45 0.48 0.76 0.81 0.76 0.75 0.56 0.46 0.50 0.58 0.60 0.92 0.90 0.88 0.98 0.98 1.10
0.17 0.13 0.11 0.12 0.13 0.12 0.10 0.10 0.09 0.12 0.08 0.16 0.25 0.40 0.55 0.65 0.88 1.18 1.05 1.07 0.90 0.89 1.06 0.98 0.67 0.60 0.60 0.74 0.75 0.78 0.66 0.83 0.73 0.57 0.58 0.49 0.44 0.49 0.66 0.55 0.81 0.87 0.94
0.16 0.14 0.17 0.18 0.19 0.20 0.16 0.13 0.11 0.08 0.09 0.12 0.19 0.25 0.32 0.49 0.65 0.98 1.28 1.31 1.25 1.09 0.92 0.88 0.86 0.89 0.81 0.89 0.87 0.93 0.74 0.63 0.76 0.67 0.62 0.79 0.66 0.62 0.50 0.34 0.40 0.66 0.70
0.19 0.18 0.19 0.26 0.25 0.16 0.10 0.08 0.03 0.05 0.07 0.06 0.04 0.03 0.03 0.12 0.30 0.51 0.80 1.14 1.44 1.45 1.19 1.09 1.02 0.90 0.98 1.01 1.08 0.97 0.87 0.91 0.70 0.67 0.72 0.70 0.71 0.66 0.66 0.51 0.41 0.55 0.55
0.18 0.16 0.16 0.16 0.09 0.04 0.01 0.00 0.03 0.04 0.02 0.01 0.01 0.01 0.01 0.02 0.05 0.08 0.20 0.39 0.65 1.03 1.36 1.28 1.26 1.28 1.25 1.25 1.20 1.19 1.16 1.05 0.90 0.93 0.78 0.87 0.81 0.70 0.65 0.64 0.69 0.52 0.36
0.15 0.09 0.05 0.02 0.01 0.01 0.01 0.01 0.02 0.00 0.00 0.00 0.01 0.01 0.01 0.01 0.02 0.01 0.02 0.04 0.10 0.20 0.41 0.68 0.89 1.05 1.15 1.21 1.22 1.20 1.17 1.10 1.01 1.12 1.21 1.09 0.78 0.65 0.67 0.69 0.59 0.42 0.29
0.02 0.01 0.00 0.00 0.01 0.01 0.01 0.01 0.00 0.00 0.00 0.00 0.00 0.00 0.01 0.01 0.00 0.01 0.02 0.02 0.04 0.05 0.09 0.13 0.20 0.32 0.40 0.49 0.61 0.70 0.78 0.84 0.86 0.89 0.86 0.81 0.76 0.75 0.78 0.72 0.64 0.58 0.54
0.01 0.01 0.00 0.01 0.01 0.01 0.01 0.01 0.01 0.00 0.00 0.00 0.00 0.00 0.00 0.00 0.01 0.03 0.05 0.04 0.07 0.04 0.05 0.10 0.08 0.09 0.14 0.24 0.24 0.26 0.28 0.33 0.42 0.48 0.53 0.53 0.55 0.55 0.59 0.63 0.68 0.70 0.68
0.01 0.01 0.01 0.01 0.01 0.01 0.00 0.00 0.00 0.00 0.00 0.00 0.00 0.00 0.00 0.00 0.00 0.00 0.02 0.04 0.05 0.03 0.03 0.04 0.05 0.07 0.07 0.06 0.06 0.06 0.07 0.09 0.10 0.11 0.16 0.22 0.25 0.28 0.31 0.33 0.37 0.38 0.41

GFSMW_prec_precacc24_123.txt.gz
Total_Precipitation_Accumulation
0.00 0.00 0.00 0.00 0.00 0.00 0.00 0.00 0.00 0.00 0.00 0.00 0.00 0.00 0.00 0.00 0.00 0.00 0.00 0.01 0.18 0.13 0.02 0.03 0.09 0.23 0.27 0.31 0.65 0.94 0.93 0.87 1.17 1.71 1.65 1.02 0.60 0.45 0.32 0.44 0.60 0.81 0.80
0.00 0.00 0.00 0.00 0.00 0.00 0.00 0.00 0.00 0.00 0.00 0.00 0.00 0.00 0.00 0.00 0.00 0.01 0.00 0.00 0.05 0.17 0.10 0.07 0.07 0.11 0.23 0.35 0.34 0.65 0.76 0.71 0.89 1.14 1.14 0.94 0.54 0.36 0.36 0.45 0.56 0.61 0.69
0.00 0.00 0.00 0.00 0.00 0.00 0.00 0.00 0.00 0.00 0.00 0.00 0.00 0.00 0.00 0.01 0.01 0.02 0.01 0.01 0.04 0.09 0.10 0.09 0.16 0.35 0.75 0.92 1.03 1.13 1.21 0.97 0.91 0.99 1.11 0.90 0.73 0.69 0.62 0.61 0.53 0.52 0.52
0.01 0.00 0.00 0.00 0.01 0.01 0.00 0.00 0.00 0.00 0.00 0.00 0.00 0.00 0.00 0.00 0.00 0.00 0.00 0.01 0.05 0.12 0.13 0.15 0.29 0.32 0.43 0.50 0.64 0.78 0.93 1.12 1.18 1.31 1.42 1.23 1.00 0.69 0.48 0.49 0.54 0.42 0.30
0.08 0.05 0.03 0.02 0.02 0.01 0.01 0.01 0.02 0.03 0.04 0.04 0.02 0.02 0.01 0.00 0.00 0.00 0.01 0.01 0.02 0.05 0.10 0.17 0.31 0.40 0.41 0.33 0.30 0.21 0.17 0.16 0.26 0.24 0.24 0.38 0.34 0.27 0.20 0.11 0.09 0.10 0.06
0.08 0.09 0.10 0.07 0.05 0.02 0.01 0.00 0.01 0.01 0.02 0.03 0.05 0.04 0.03 0.01 0.01 0.00 0.01 0.05 0.08 0.11 0.17 0.39 0.31 0.33 0.47 0.44 0.52 0.56 0.41 0.26 0.16 0.13 0.09 0.09 0.07 0.05 0.05 0.05 0.03 0.03 0.03
0.20 0.13 0.09 0.07 0.08 0.09 0.08 0.07 0.05 0.02 0.01 0.00 0.01 0.02 0.02 0.01 0.01 0.01 0.03 0.10 0.24 0.29 0.30 0.42 0.36 0.28 0.34 0.34 0.34 0.50 0.76 0.82 0.46 0.31 0.23 0.16 0.13 0.15 0.14 0.19 0.13 0.03 0.01
0.44 0.30 0.18 0.11 0.07 0.06 0.04 0.04 0.06 0.06 0.04 0.03 0.02 0.02 0.02 0.04 0.03 0.03 0.06 0.09 0.08 0.09 0.26 0.62 0.57 0.46 0.40 0.43 0.56 0.60 0.65 0.87 1.02 0.48 0.31 0.22 0.16 0.23 0.20 0.18 0.20 0.11 0.04
0.43 0.38 0.30 0.17 0.09 0.06 0.03 0.02 0.01 0.01 0.02 0.02 0.03 0.04 0.08 0.11 0.14 0.08 0.15 0.12 0.10 0.09 0.10 0.15 0.36 0.46 0.44 0.35 0.44 0.42 0.39 0.40 0.62 0.56 0.37 0.37 0.26 0.26 0.23 0.24 0.24 0.20 0.09
0.41 0.28 0.18 0.13 0.08 0.07 0.05 0.02 0.01 0.02 0.03 0.05 0.07 0.07 0.12 0.20 0.26 0.22 0.21 0.17 0.14 0.16 0.20 0.18 0.37 0.43 0.54 0.52 0.31 0.23 0.29 0.32 0.50 0.75 0.70 0.45 0.25 0.28 0.35 0.33 0.36 0.31 0.20
0.11 0.12 0.10 0.09 0.08 0.07 0.07 0.05 0.03 0.03 0.07 0.11 0.14 0.12 0.11 0.21 0.21 0.25 0.33 0.31 0.30 0.31 0.36 0.36 0.47 0.38 0.48 0.64 0.62 0.42 0.51 0.52 0.55 0.72 0.54 0.36 0.36 0.34 0.42 0.50 0.47 0.40 0.36
0.04 0.03 0.02 0.01 0.01 0.01 0.01 0.02 0.01 0.02 0.06 0.10 0.18 0.22 0.22 0.23 0.27 0.31 0.40 0.36 0.31 0.44 0.57 0.45 0.50 0.46 0.43 0.50 0.84 0.80 0.61 0.52 0.68 0.89 0.85 0.53 0.49 0.47 0.47 0.49 0.45 0.41 0.43
0.00 0.00 0.00 0.00 0.00 0.00 0.00 0.04 0.07 0.07 0.06 0.08 0.15 0.12 0.13 0.27 0.33 0.36 0.35 0.36 0.26 0.28 0.52 0.59 0.63 0.70 0.51 0.39 0.34 0.60 0.78 0.54 0.51 0.69 0.87 0.74 0.60 0.54 0.64 0.62 0.44 0.36 0.35
0.00 0.00 0.00 0.00 0.00 0.00 0.00 0.04 0.16 0.19 0.36 0.31 0.20 0.28 0.30 0.31 0.34 0.36 0.42 0.37 0.34 0.16 0.24 0.46 0.55 0.81 0.84 0.79 0.61 0.56 0.48 0.63 0.51 0.46 0.45 0.58 0.64 0.43 0.40 0.43 0.51 0.56 0.50
0.00 0.00 0.00 0.00 0.00 0.00 0.00 0.00 0.01 0.05 0.16 0.42 0.42 0.30 0.39 0.51 0.65 0.87 0.96 0.63 0.54 0.38 0.29 0.25 0.29 0.60 0.95 0.60 0.46 0.34 0.54 0.57 0.59 0.56 0.56 0.43 0.57 0.56 0.49 0.48 0.34 0.39 0.55
0.00 0.00 0.00 0.00 0.01 0.01 0.02 0.01 0.02 0.03 0.04 0.07 0.15 0.23 0.16 0.14 0.22 0.41 0.63 0.76 0.70 0.76 0.51 0.55 0.37 0.27 0.49 0.73 0.49 0.48 0.39 0.56 0.65 0.58 0.44 0.66 0.83 0.45 0.39 0.51 0.59 0.61 0.60
0.02 0.01 0.02 0.02 0.03 0.05 0.05 0.04 0.06 0.04 0.03 0.05 0.16 0.19 0.31 0.31 0.31 0.33 0.46 0.75 1.13 0.94 0.94 0.62 0.50 0.40 0.35 0.70 0.53 0.62 0.74 0.60 0.46 0.57 0.55 0.37 0.62 0.79 0.66 0.59 0.63 0.84 0.98
0.06 0.04 0.04 0.05 0.06 0.07 0.07 0.06 0.06 0.04 0.05 0.08 0.09 0.12 0.19 0.27 0.31 0.30 0.30 0.43 0.97 1.23 1.10 0.78 0.61 0.45 0.45 0.47 0.74 0.78 0.77 0.72 0.53 0.49 0.54 0.56 0.52 0.71 0.65 0.61 0.68 0.78 0.98
0.16 0.11 0.09 0.11 0.13 0.13 0.11 0.10 0.10 0.08 0.03 0.08 0.13 0.18 0.20 0.18 0.16 0.19 0.26 0.41 0.54 0.81 1.04 0.98 0.68 0.60 0.60 0.72 0.72 0.76 0.69 0.89 0.77 0.57 0.57 0.50 0.53 0.64 0.81 0.78 0.92 0.89 0.94
0.14 0.13 0.16 0.17 0.19 0.20 0.16 0.14 0.11 0.06 0.06 0.05 0.12 0.15 0.12 0.14 0.16 0.27 0.41 0.55 0.70 0.87 0.82 0.83 0.85 0.88 0.81 0.87 0.83 0.90 0.75 0.62 0.77 0.70 0.63 0.80 0.76 0.72 0.66 0.67 0.72 0.90 0.90
0.17 0.17 0.18 0.24 0.24 0.15 0.10 0.08 0.03 0.03 0.03 0.02 0.01 0.01 0.01 0.03 0.06 0.12 0.32 0.54 0.81 1.01 0.97 0.93 0.90 0.82 0.90 0.97 1.04 0.93 0.85 0.89 0.67 0.64 0.71 0.73 0.78 0.83 0.88 0.83 0.81 0.98 0.96
0.17 0.15 0.15 0.15 0.08 0.03 0.01 0.00 0.01 0.01 0.00 0.00 0.00 0.00 0.00 0.01 0.01 0.01 0.05 0.16 0.34 0.60 0.91 0.98 0.99 1.06 1.03 1.04 1.05 1.07 1.06 0.96 0.83 0.83 0.69 0.75 0.69 0.65 0.71 0.80 0.94 0.83 0.69
0.13 0.07 0.03 0.01 0.00 0.00 0.00 0.00 0.00 0.00 0.00 0.00 0.00 0.00 0.00 0.00 0.00 0.00 0.00 0.01 0.04 0.10 0.22 0.41 0.62 0.76 0.86 0.91 0.96 0.97 0.96 0.91 0.87 0.94 0.98 0.84 0.63 0.56 0.60 0.67 0.66 0.59 0.52
0.01 0.00 0.00 0.00 0.00 0.00 0.00 0.00 0.00 0.00 0.00 0.00 0.00 0.00 0.00 0.00 0.00 0.00 0.00 0.00 0.01 0.01 0.03 0.06 0.11 0.18 0.24 0.31 0.40 0.49 0.58 0.65 0.67 0.69 0.70 0.68 0.66 0.67 0.72 0.68 0.64 0.61 0.64
0.00 0.00 0.00 0.00 0.00 0.00 0.00 0.00 0.00 0.00 0.00 0.00 0.00 0.00 0.00 0.00 0.00 0.02 0.03 0.02 0.02 0.01 0.03 0.05 0.03 0.03 0.06 0.12 0.12 0.15 0.17 0.22 0.28 0.33 0.35 0.35 0.37 0.39 0.45 0.50 0.57 0.62 0.63
0.00 0.00 0.00 0.00 0.00 0.00 0.00 0.00 0.00 0.00 0.00 0.00 0.00 0.00 0.00 0.00 0.00 0.00 0.01 0.01 0.01 0.00 0.00 0.01 0.01 0.01 0.01 0.00 0.01 0.01 0.02 0.04 0.06 0.07 0.10 0.14 0.17 0.20 0.23 0.26 0.29 0.31 0.35

GFSMW_prec_precacc24_126.txt.gz
Total_Precipitation_Accumulation
0.00 0.00 0.00 0.00 0.00 0.00 0.00 0.00 0.00 0.00 0.00 0.00 0.00 0.00 0.00 0.00 0.00 0.00 0.00 0.01 0.18 0.13 0.02 0.03 0.09 0.23 0.27 0.31 0.65 0.94 0.94 0.88 1.22 1.90 1.86 1.30 0.99 1.04 1.15 0.99 0.48 0.29 0.42
0.00 0.00 0.00 0.00 0.00 0.00 0.00 0.00 0.00 0.00 0.00 0.00 0.00 0.00 0.00 0.00 0.00 0.00 0.00 0.00 0.05 0.16 0.10 0.07 0.07 0.11 0.23 0.34 0.33 0.64 0.76 0.71 0.91 1.20 1.27 1.21 0.81 0.51 0.38 0.44 0.43 0.36 0.47
0.00 0.00 0.00 0.00 0.00 0.00 0.00 0.00 0.00 0.00 0.00 0.00 0.00 0.00 0.00 0.00 0.00 0.00 0.00 0.00 0.02 0.05 0.08 0.08 0.15 0.35 0.75 0.92 1.02 1.13 1.21 0.97 0.92 1.02 1.13 0.91 0.74 0.69 0.60 0.57 0.45 0.38 0.38
0.01 0.00 0.00 0.00 0.01 0.01 0.00 0.00 0.00 0.00 0.00 0.00 0.00 0.00 0.00 0.00 0.00 0.00 0.00 0.00 0.02 0.08 0.08 0.09 0.18 0.23 0.39 0.48 0.63 0.78 0.92 1.11 1.18 1.32 1.44 1.25 1.01 0.71 0.47 0.46 0.49 0.37 0.23
0.08 0.05 0.03 0.02 0.02 0.01 0.01 0.01 0.02 0.03 0.04 0.04 0.02 0.01 0.01 0.00 0.00 0.00 0.00 0.01 0.01 0.04 0.09 0.13 0.13 0.26 0.33 0.27 0.24 0.20 0.16 0.16 0.26 0.24 0.24 0.40 0.38 0.30 0.24 0.12 0.07 0.07 0.03
0.08 0.09 0.10 0.07 0.05 0.02 0.01 0.00 0.01 0.01 0.02 0.04 0.05 0.04 0.03 0.02 0.01 0.00 0.00 0.03 0.06 0.09 0.16 0.36 0.25 0.28 0.43 0.39 0.46 0.55 0.40 0.25 0.16 0.12 0.08 0.07 0.07 0.06 0.08 0.06 0.03 0.01 0.01
0.20 0.13 0.09 0.07 0.08 0.09 0.09 0.07 0.05 0.03 0.01 0.00 0.01 0.02 0.03 0.04 0.04 0.03 0.03 0.09 0.22 0.28 0.30 0.42 0.35 0.27 0.33 0.33 0.33 0.49 0.75 0.81 0.45 0.30 0.22 0.16 0.11 0.12 0.13 0.17 0.12 0.03 0.01
0.44 0.30 0.18 0.11 0.07 0.06 0.05 0.04 0.05 0.06 0.04 0.03 0.02 0.02 0.01 0.02 0.01 0.02 0.06 0.09 0.08 0.09 0.26 0.61 0.57 0.42 0.33 0.36 0.52 0.59 0.64 0.85 0.99 0.47 0.31 0.22 0.15 0.19 0.16 0.16 0.21 0.11 0.04
0.43 0.38 0.30 0.17 0.09 0.06 0.03 0.02 0.01 0.00 0.00 0.01 0.01 0.01 0.03 0.06 0.06 0.07 0.12 0.09 0.11 0.09 0.10 0.15 0.30 0.30 0.30 0.24 0.35 0.42 0.38 0.39 0.60 0.54 0.36 0.37 0.26 0.25 0.21 0.21 0.23 0.20 0.10
0.41 0.28 0.18 0.13 0.08 0.05 0.03 0.01 0.00 0.00 0.00 0.00 0.01 0.03 0.06 0.17 0.23 0.20 0.17 0.10 0.07 0.13 0.14 0.10 0.25 0.28 0.35 0.34 0.20 0.23 0.29 0.31 0.49 0.74 0.68 0.44 0.25 0.28 0.36 0.34 0.38 0.33 0.22
0.11 0.12 0.10 0.09 0.08 0.06 0.04 0.03 0.02 0.02 0.01 0.01 0.02 0.04 0.05 0.15 0.17 0.20 0.29 0.27 0.28 0.27 0.28 0.28 0.37 0.24 0.32 0.52 0.56 0.41 0.51 0.51 0.53 0.70 0.53 0.35 0.37 0.34 0.42 0.51 0.49 0.43 0.39
0.04 0.03 0.02 0.01 0.01 0.01 0.01 0.01 0.00 0.00 0.00 0.00 0.01 0.02 0.06 0.08 0.12 0.21 0.29 0.27 0.25 0.39 0.51 0.41 0.42 0.40 0.37 0.48 0.82 0.79 0.61 0.52 0.67 0.88 0.85 0.53 0.49 0.46 0.46 0.49 0.44 0.39 0.41
0.00 0.00 0.00 0.00 0.00 0.00 0.00 0.01 0.01 0.02 0.01 0.01 0.01 0.03 0.06 0.10 0.11 0.13 0.19 0.22 0.22 0.27 0.51 0.58 0.61 0.66 0.48 0.38 0.34 0.60 0.77 0.54 0.50 0.68 0.87 0.74 0.59 0.52 0.59 0.57 0.40 0.33 0.34
0.00 0.00 0.00 0.00 0.00 0.00 0.00 0.00 0.00 0.04 0.15 0.22 0.15 0.09 0.12 0.13 0.18 0.20 0.27 0.29 0.29 0.16 0.24 0.45 0.55 0.81 0.84 0.78 0.61 0.56 0.48 0.63 0.50 0.45 0.44 0.57 0.63 0.41 0.37 0.39 0.46 0.50 0.43
0.00 0.00 0.00 0.00 0.00 0.00 0.00 0.00 0.00 0.01 0.02 0.10 0.25 0.26 0.24 0.34 0.49 0.75 0.83 0.52 0.50 0.36 0.28 0.24 0.29 0.59 0.95 0.60 0.46 0.34 0.54 0.56 0.59 0.56 0.56 0.43 0.57 0.53 0.39 0.39 0.29 0.33 0.46
0.00 0.00 0.00 0.00 0.01 0.01 0.01 0.01 0.01 0.01 0.02 0.03 0.05 0.10 0.09 0.11 0.19 0.32 0.53 0.51 0.56 0.70 0.49 0.55 0.37 0.27 0.49 0.72 0.48 0.48 0.39 0.56 0.65 0.58 0.44 0.65 0.81 0.42 0.32 0.38 0.47 0.51 0.48
0.01 0.01 0.02 0.02 0.03 0.04 0.04 0.04 0.04 0.01 0.02 0.04 0.04 0.05 0.15 0.20 0.21 0.18 0.18 0.31 0.38 0.49 0.78 0.60 0.49 0.40 0.35 0.69 0.52 0.61 0.74 0.60 0.46 0.57 0.55 0.37 0.59 0.71 0.56 0.47 0.51 0.69 0.78
0.04 0.04 0.04 0.05 0.06 0.07 0.07 0.06 0.05 0.03 0.03 0.06 0.08 0.08 0.13 0.22 0.26 0.27 0.20 0.18 0.30 0.48 0.69 0.67 0.59 0.44 0.45 0.46 0.73 0.76 0.77 0.72 0.54 0.50 0.55 0.56 0.52 0.67 0.57 0.48 0.52 0.56 0.73
0.13 0.10 0.08 0.10 0.13 0.13 0.11 0.10 0.10 0.08 0.02 0.05 0.10 0.14 0.15 0.15 0.12 0.13 0.13 0.15 0.13 0.25 0.65 0.83 0.64 0.60 0.59 0.71 0.72 0.75 0.69 0.89 0.77 0.57 0.57 0.49 0.53 0.64 0.77 0.67 0.76 0.69 0.69
0.12 0.10 0.14 0.16 0.18 0.20 0.16 0.13 0.11 0.06 0.05 0.04 0.09 0.11 0.08 0.11 0.12 0.15 0.18 0.22 0.26 0.32 0.36 0.62 0.80 0.86 0.81 0.87 0.83 0.88 0.74 0.62 0.77 0.70 0.62 0.76 0.73 0.68 0.64 0.63 0.65 0.84 0.85
0.14 0.15 0.18 0.24 0.23 0.15 0.10 0.08 0.03 0.02 0.02 0.01 0.00 0.00 0.00 0.01 0.03 0.04 0.10 0.20 0.31 0.42 0.47 0.56 0.70 0.73 0.85 0.95 1.02 0.91 0.84 0.88 0.67 0.63 0.71 0.72 0.76 0.82 0.86 0.80 0.77 0.92 0.91
0.15 0.14 0.15 0.14 0.08 0.03 0.01 0.00 0.00 0.00 0.00 0.00 0.00 0.00 0.00 0.00 0.00 0.00 0.01 0.06 0.14 0.23 0.40 0.53 0.67 0.80 0.85 0.91 0.93 0.99 1.00 0.92 0.82 0.82 0.68 0.73 0.68 0.63 0.69 0.77 0.87 0.77 0.66
0.13 0.07 0.03 0.01 0.00 0.00 0.00 0.00 0.00 0.00 0.00 0.00 0.00 0.00 0.00 0.00 0.00 0.00 0.00 0.00 0.02 0.06 0.14 0.23 0.37 0.52 0.64 0.72 0.79 0.84 0.83 0.80 0.78 0.86 0.91 0.79 0.61 0.55 0.58 0.63 0.63 0.58 0.51
0.01 0.00 0.00 0.00 0.00 0.00 0.00 0.00 0.00 0.00 0.00 0.00 0.00 0.00 0.00 0.00 0.00 0.00 0.00 0.00 0.00 0.01 0.02 0.04 0.09 0.14 0.19 0.25 0.33 0.41 0.49 0.55 0.57 0.59 0.62 0.63 0.63 0.65 0.68 0.64 0.58 0.54 0.59
0.00 0.00 0.00 0.00 0.00 0.00 0.00 0.00 0.00 0.00 0.00 0.00 0.00 0.00 0.00 0.00 0.00 0.01 0.02 0.01 0.01 0.01 0.02 0.04 0.02 0.02 0.05 0.08 0.09 0.12 0.14 0.18 0.23 0.28 0.30 0.30 0.32 0.35 0.41 0.46 0.53 0.57 0.59
0.00 0.00 0.00 0.00 0.00 0.00 0.00 0.00 0.00 0.00 0.00 0.00 0.00 0.00 0.00 0.00 0.00 0.00 0.01 0.01 0.00 0.00 0.00 0.01 0.01 0.01 0.01 0.00 0.00 0.01 0.02 0.03 0.04 0.06 0.08 0.12 0.14 0.17 0.20 0.23 0.27 0.29 0.34

GFSMW_prec_precacc24_132.txt.gz
Total_Precipitation_Accumulation
0.00 0.00 0.00 0.00 0.00 0.00 0.00 0.00 0.00 0.00 0.00 0.00 0.00 0.00 0.00 0.00 0.00 0.00 0.00 0.00 0.10 0.10 0.01 0.02 0.08 0.22 0.27 0.30 0.64 0.94 0.93 0.88 1.24 1.95 1.92 1.48 1.45 1.80 2.03 2.47 2.47 2.61 2.24
0.00 0.00 0.00 0.00 0.00 0.00 0.00 0.00 0.00 0.00 0.00 0.00 0.00 0.00 0.00 0.00 0.00 0.00 0.00 0.00 0.00 0.03 0.02 0.01 0.02 0.05 0.19 0.33 0.32 0.64 0.75 0.69 0.90 1.22 1.30 1.27 0.89 0.62 0.51 0.55 0.54 0.40 0.32
0.00 0.00 0.00 0.00 0.00 0.00 0.00 0.00 0.00 0.00 0.00 0.00 0.00 0.00 0.00 0.00 0.00 0.00 0.00 0.00 0.00 0.00 0.03 0.05 0.06 0.09 0.32 0.57 0.96 1.12 1.20 0.96 0.90 1.02 1.15 0.96 0.76 0.70 0.63 0.59 0.45 0.38 0.28
0.01 0.00 0.00 0.00 0.01 0.01 0.00 0.00 0.00 0.00 0.00 0.00 0.00 0.00 0.00 0.00 0.00 0.00 0.00 0.00 0.00 0.01 0.02 0.04 0.11 0.08 0.20 0.28 0.43 0.69 0.90 1.11 1.18 1.31 1.43 1.25 1.02 0.74 0.51 0.49 0.52 0.37 0.20
0.08 0.05 0.03 0.02 0.02 0.01 0.01 0.01 0.02 0.03 0.04 0.04 0.02 0.01 0.01 0.00 0.00 0.00 0.00 0.00 0.00 0.02 0.06 0.10 0.11 0.10 0.15 0.11 0.10 0.12 0.14 0.14 0.25 0.24 0.24 0.39 0.36 0.28 0.25 0.15 0.07 0.10 0.07
0.08 0.09 0.10 0.07 0.05 0.02 0.01 0.00 0.01 0.01 0.02 0.04 0.05 0.04 0.03 0.02 0.01 0.00 0.00 0.00 0.00 0.00 0.06 0.16 0.17 0.19 0.18 0.14 0.11 0.13 0.18 0.14 0.10 0.10 0.09 0.07 0.07 0.05 0.07 0.08 0.04 0.03 0.02
0.20 0.13 0.09 0.07 0.08 0.09 0.09 0.07 0.05 0.03 0.01 0.00 0.01 0.02 0.03 0.04 0.04 0.03 0.01 0.01 0.01 0.00 0.03 0.23 0.27 0.23 0.29 0.28 0.25 0.27 0.43 0.57 0.36 0.26 0.21 0.15 0.09 0.08 0.10 0.09 0.05 0.02 0.00
0.44 0.30 0.18 0.11 0.07 0.06 0.05 0.04 0.05 0.06 0.04 0.03 0.02 0.01 0.01 0.01 0.01 0.01 0.01 0.02 0.02 0.01 0.04 0.33 0.43 0.34 0.27 0.23 0.29 0.33 0.45 0.73 0.75 0.33 0.23 0.17 0.14 0.15 0.14 0.13 0.16 0.08 0.02
0.43 0.38 0.30 0.17 0.09 0.06 0.03 0.02 0.01 0.00 0.00 0.00 0.00 0.00 0.00 0.00 0.01 0.02 0.02 0.02 0.02 0.01 0.02 0.09 0.18 0.19 0.16 0.13 0.22 0.31 0.29 0.34 0.54 0.45 0.21 0.22 0.22 0.23 0.20 0.17 0.18 0.17 0.08
0.41 0.28 0.18 0.13 0.08 0.05 0.03 0.01 0.00 0.00 0.00 0.00 0.00 0.00 0.00 0.00 0.01 0.01 0.03 0.03 0.02 0.01 0.03 0.04 0.19 0.23 0.21 0.15 0.11 0.14 0.20 0.21 0.37 0.57 0.48 0.30 0.20 0.25 0.35 0.34 0.37 0.31 0.19
0.11 0.12 0.10 0.09 0.08 0.06 0.04 0.03 0.02 0.02 0.01 0.00 0.00 0.00 0.00 0.00 0.00 0.01 0.02 0.04 0.06 0.06 0.07 0.09 0.26 0.19 0.25 0.21 0.18 0.15 0.20 0.24 0.33 0.53 0.38 0.25 0.30 0.31 0.41 0.50 0.49 0.44 0.42
0.04 0.03 0.02 0.01 0.01 0.01 0.01 0.01 0.00 0.00 0.00 0.00 0.00 0.00 0.00 0.00 0.00 0.00 0.01 0.01 0.03 0.03 0.08 0.15 0.33 0.30 0.28 0.25 0.22 0.21 0.17 0.21 0.32 0.47 0.59 0.41 0.41 0.43 0.46 0.49 0.45 0.39 0.42
0.00 0.00 0.00 0.00 0.00 0.00 0.00 0.01 0.01 0.01 0.00 0.00 0.00 0.00 0.00 0.00 0.00 0.00 0.00 0.00 0.00 0.01 0.07 0.12 0.22 0.40 0.37 0.32 0.24 0.25 0.35 0.35 0.38 0.37 0.41 0.58 0.53 0.50 0.58 0.58 0.41 0.34 0.33
0.00 0.00 0.00 0.00 0.00 0.00 0.00 0.00 0.00 0.00 0.00 0.00 0.00 0.00 0.00 0.00 0.00 0.00 0.00 0.00 0.00 0.01 0.06 0.14 0.20 0.47 0.64 0.70 0.56 0.53 0.35 0.33 0.40 0.38 0.38 0.52 0.59 0.39 0.35 0.38 0.45 0.47 0.37
0.00 0.00 0.00 0.00 0.00 0.00 0.00 0.00 0.00 0.00 0.00 0.00 0.00 0.00 0.00 0.00 0.00 0.00 0.00 0.00 0.00 0.00 0.01 0.05 0.11 0.35 0.81 0.51 0.40 0.31 0.48 0.44 0.39 0.48 0.52 0.41 0.56 0.52 0.37 0.37 0.26 0.28 0.38
0.00 0.00 0.00 0.00 0.01 0.01 0.01 0.01 0.01 0.01 0.00 0.00 0.01 0.00 0.00 0.00 0.00 0.00 0.00 0.00 0.01 0.03 0.10 0.10 0.13 0.12 0.41 0.62 0.39 0.41 0.34 0.52 0.58 0.40 0.37 0.64 0.79 0.41 0.31 0.35 0.40 0.42 0.39
0.01 0.01 0.02 0.02 0.03 0.04 0.04 0.04 0.04 0.01 0.00 0.01 0.01 0.01 0.01 0.01 0.02 0.02 0.02 0.03 0.02 0.02 0.05 0.11 0.19 0.24 0.24 0.53 0.38 0.55 0.71 0.58 0.44 0.53 0.53 0.36 0.59 0.71 0.55 0.42 0.44 0.54 0.55
0.01 0.02 0.03 0.04 0.04 0.06 0.06 0.06 0.05 0.03 0.01 0.02 0.01 0.02 0.03 0.04 0.04 0.03 0.04 0.07 0.07 0.08 0.10 0.16 0.16 0.17 0.31 0.32 0.62 0.65 0.74 0.70 0.51 0.48 0.54 0.56 0.52 0.66 0.57 0.45 0.41 0.42 0.53
0.03 0.04 0.06 0.06 0.08 0.09 0.08 0.09 0.09 0.08 0.01 0.02 0.03 0.04 0.04 0.05 0.06 0.06 0.07 0.08 0.07 0.07 0.11 0.11 0.10 0.15 0.26 0.46 0.52 0.63 0.67 0.88 0.76 0.57 0.56 0.48 0.52 0.63 0.76 0.67 0.73 0.58 0.47
0.04 0.07 0.07 0.08 0.09 0.14 0.12 0.12 0.11 0.06 0.04 0.01 0.01 0.02 0.02 0.03 0.04 0.06 0.08 0.08 0.08 0.10 0.07 0.05 0.09 0.13 0.20 0.34 0.46 0.62 0.63 0.59 0.75 0.68 0.61 0.74 0.72 0.66 0.63 0.63 0.65 0.81 0.75
0.08 0.08 0.10 0.15 0.17 0.11 0.08 0.07 0.03 0.01 0.00 0.00 0.00 0.00 0.00 0.00 0.00 0.01 0.01 0.03 0.04 0.03 0.03 0.03 0.05 0.08 0.15 0.25 0.40 0.49 0.60 0.74 0.60 0.60 0.68 0.70 0.73 0.78 0.82 0.77 0.74 0.86 0.87
0.08 0.08 0.11 0.13 0.07 0.03 0.01 0.00 0.00 0.00 0.00 0.00 0.00 0.00 0.00 0.00 0.00 0.00 0.00 0.00 0.00 0.00 0.01 0.01 0.02 0.05 0.08 0.13 0.22 0.38 0.54 0.63 0.64 0.70 0.64 0.65 0.61 0.58 0.64 0.71 0.78 0.68 0.61
0.08 0.06 0.04 0.02 0.00 0.00 0.00 0.00 0.00 0.00 0.00 0.00 0.00 0.00 0.00 0.00 0.00 0.00 0.00 0.00 0.00 0.00 0.00 0.00 0.01 0.02 0.03 0.06 0.10 0.16 0.24 0.32 0.41 0.52 0.62 0.62 0.53 0.49 0.52 0.56 0.56 0.53 0.49
0.01 0.00 0.00 0.00 0.00 0.00 0.00 0.00 0.00 0.00 0.00 0.00 0.00 0.00 0.00 0.00 0.00 0.00 0.00 0.00 0.00 0.00 0.01 0.01 0.01 0.01 0.00 0.01 0.03 0.06 0.10 0.14 0.17 0.21 0.25 0.28 0.33 0.40 0.46 0.47 0.45 0.45 0.50
0.00 0.00 0.00 0.00 0.00 0.00 0.00 0.00 0.00 0.00 0.00 0.00 0.00 0.00 0.00 0.00 0.00 0.01 0.02 0.01 0.00 0.00 0.01 0.03 0.02 0.01 0.02 0.02 0.00 0.00 0.01 0.03 0.06 0.09 0.10 0.12 0.15 0.17 0.21 0.26 0.32 0.38 0.41
0.00 0.00 0.00 0.00 0.00 0.00 0.00 0.00 0.00 0.00 0.00 0.00 0.00 0.00 0.00 0.00 0.00 0.00 0.00 0.01 0.00 0.00 0.00 0.01 0.01 0.01 0.00 0.00 0.00 0.00 0.00 0.00 0.00 0.00 0.01 0.03 0.05 0.08 0.11 0.13 0.16 0.17 0.21

GFSMW_prec_precacc24_135.txt.gz
Total_Precipitation_Accumulation
0.00 0.00 0.00 0.00 0.00 0.00 0.00 0.00 0.00 0.00 0.00 0.00 0.00 0.00 0.00 0.00 0.00 0.00 0.00 0.00 0.00 0.01 0.01 0.01 0.06 0.21 0.25 0.30 0.64 0.92 0.92 0.85 1.23 1.95 1.92 1.48 1.45 1.80 2.02 2.47 2.48 2.68 2.66
0.00 0.00 0.00 0.00 0.00 0.00 0.00 0.00 0.00 0.00 0.00 0.00 0.00 0.00 0.00 0.00 0.00 0.00 0.00 0.00 0.00 0.00 0.00 0.00 0.01 0.02 0.08 0.23 0.28 0.50 0.66 0.64 0.85 1.18 1.30 1.27 0.89 0.62 0.51 0.55 0.54 0.40 0.32
0.00 0.00 0.00 0.00 0.00 0.00 0.00 0.00 0.00 0.00 0.00 0.00 0.00 0.00 0.00 0.00 0.00 0.00 0.00 0.00 0.00 0.00 0.00 0.00 0.01 0.02 0.05 0.07 0.18 0.25 0.45 0.51 0.68 0.91 1.10 0.96 0.76 0.70 0.63 0.59 0.45 0.38 0.28
0.00 0.00 0.00 0.00 0.01 0.01 0.00 0.00 0.00 0.00 0.00 0.00 0.00 0.00 0.00 0.00 0.00 0.00 0.00 0.00 0.00 0.00 0.00 0.00 0.00 0.02 0.04 0.06 0.07 0.13 0.24 0.42 0.88 1.12 1.37 1.24 1.03 0.75 0.51 0.49 0.51 0.37 0.21
0.08 0.05 0.03 0.02 0.02 0.01 0.01 0.01 0.02 0.03 0.04 0.04 0.02 0.01 0.01 0.00 0.00 0.00 0.00 0.00 0.00 0.00 0.00 0.00 0.00 0.01 0.03 0.04 0.05 0.06 0.08 0.07 0.06 0.07 0.19 0.37 0.36 0.28 0.26 0.16 0.07 0.10 0.07
0.08 0.09 0.10 0.07 0.05 0.02 0.01 0.00 0.01 0.01 0.02 0.04 0.05 0.04 0.03 0.02 0.01 0.00 0.00 0.00 0.00 0.00 0.00 0.00 0.00 0.00 0.01 0.04 0.06 0.06 0.07 0.07 0.06 0.05 0.06 0.07 0.08 0.05 0.08 0.08 0.04 0.03 0.02
0.20 0.13 0.09 0.07 0.08 0.09 0.09 0.07 0.05 0.03 0.01 0.00 0.01 0.02 0.03 0.04 0.04 0.03 0.01 0.01 0.01 0.00 0.00 0.00 0.00 0.00 0.00 0.02 0.10 0.13 0.14 0.16 0.15 0.12 0.10 0.11 0.09 0.08 0.10 0.08 0.05 0.02 0.00
0.44 0.30 0.18 0.11 0.07 0.06 0.05 0.04 0.05 0.06 0.04 0.03 0.02 0.01 0.01 0.00 0.01 0.01 0.01 0.02 0.02 0.01 0.01 0.01 0.01 0.00 0.00 0.01 0.05 0.09 0.17 0.26 0.26 0.16 0.17 0.14 0.13 0.15 0.14 0.13 0.14 0.08 0.02
0.43 0.38 0.30 0.17 0.09 0.06 0.03 0.02 0.01 0.00 0.00 0.00 0.00 0.00 0.00 0.00 0.00 0.01 0.01 0.01 0.02 0.01 0.01 0.02 0.02 0.01 0.01 0.01 0.03 0.07 0.11 0.16 0.19 0.12 0.13 0.16 0.15 0.17 0.16 0.17 0.18 0.17 0.08
0.40 0.28 0.18 0.13 0.08 0.05 0.03 0.01 0.00 0.00 0.00 0.00 0.00 0.00 0.00 0.00 0.00 0.00 0.00 0.01 0.01 0.01 0.01 0.00 0.01 0.01 0.01 0.02 0.02 0.06 0.14 0.15 0.22 0.29 0.21 0.19 0.10 0.12 0.21 0.23 0.32 0.32 0.20
0.11 0.12 0.10 0.09 0.08 0.06 0.04 0.03 0.02 0.02 0.01 0.00 0.00 0.00 0.00 0.00 0.00 0.00 0.01 0.01 0.01 0.01 0.01 0.01 0.01 0.02 0.03 0.06 0.08 0.11 0.18 0.18 0.16 0.33 0.20 0.11 0.17 0.14 0.27 0.38 0.39 0.41 0.42
0.04 0.03 0.02 0.01 0.01 0.01 0.01 0.01 0.00 0.00 0.00 0.00 0.00 0.00 0.00 0.00 0.00 0.00 0.00 0.00 0.00 0.00 0.00 0.00 0.01 0.05 0.09 0.13 0.10 0.13 0.14 0.13 0.10 0.17 0.31 0.15 0.17 0.25 0.30 0.41 0.41 0.37 0.42
0.00 0.00 0.00 0.00 0.00 0.00 0.00 0.01 0.01 0.01 0.00 0.00 0.00 0.00 0.00 0.00 0.00 0.00 0.00 0.00 0.00 0.00 0.00 0.00 0.00 0.02 0.06 0.09 0.12 0.18 0.29 0.23 0.13 0.18 0.25 0.24 0.28 0.34 0.47 0.49 0.36 0.32 0.33
0.00 0.00 0.00 0.00 0.00 0.00 0.00 0.00 0.00 0.00 0.00 0.00 0.00 0.00 0.00 0.00 0.00 0.00 0.00 0.00 0.00 0.00 0.00 0.00 0.00 0.01 0.01 0.13 0.34 0.39 0.25 0.25 0.25 0.29 0.32 0.41 0.44 0.24 0.19 0.29 0.40 0.43 0.34
0.00 0.00 0.00 0.00 0.00 0.00 0.00 0.00 0.00 0.00 0.00 0.00 0.00 0.00 0.00 0.00 0.00 0.00 0.00 0.00 0.00 0.00 0.00 0.00 0.01 0.03 0.08 0.17 0.19 0.21 0.42 0.37 0.33 0.46 0.49 0.37 0.48 0.42 0.27 0.30 0.24 0.26 0.37
0.00 0.00 0.00 0.00 0.01 0.01 0.01 0.01 0.01 0.01 0.00 0.00 0.00 0.00 0.00 0.00 0.00 0.00 0.00 0.00 0.00 0.00 0.00 0.01 0.01 0.01 0.04 0.18 0.19 0.16 0.24 0.39 0.55 0.39 0.33 0.58 0.74 0.36 0.26 0.31 0.36 0.39 0.38
0.01 0.01 0.01 0.01 0.02 0.03 0.03 0.03 0.03 0.01 0.00 0.00 0.00 0.00 0.01 0.01 0.01 0.01 0.01 0.01 0.01 0.01 0.01 0.02 0.03 0.03 0.04 0.09 0.14 0.24 0.56 0.49 0.39 0.52 0.43 0.31 0.55 0.66 0.53 0.39 0.42 0.52 0.53
0.01 0.02 0.02 0.02 0.03 0.04 0.04 0.04 0.04 0.03 0.00 0.01 0.01 0.01 0.02 0.02 0.03 0.02 0.02 0.03 0.03 0.03 0.04 0.06 0.07 0.06 0.11 0.12 0.15 0.31 0.56 0.63 0.45 0.43 0.50 0.51 0.49 0.64 0.53 0.44 0.40 0.42 0.53
0.03 0.03 0.04 0.04 0.04 0.04 0.05 0.05 0.07 0.07 0.01 0.01 0.01 0.01 0.01 0.01 0.01 0.01 0.02 0.04 0.03 0.03 0.06 0.08 0.08 0.10 0.15 0.22 0.25 0.29 0.41 0.71 0.70 0.53 0.52 0.43 0.48 0.58 0.73 0.66 0.73 0.58 0.47
0.04 0.05 0.04 0.04 0.03 0.06 0.05 0.07 0.08 0.04 0.03 0.01 0.00 0.00 0.00 0.00 0.00 0.00 0.01 0.01 0.02 0.03 0.03 0.02 0.03 0.04 0.07 0.14 0.18 0.23 0.33 0.45 0.62 0.59 0.57 0.67 0.67 0.63 0.62 0.62 0.65 0.80 0.75
0.05 0.05 0.05 0.07 0.09 0.06 0.04 0.03 0.01 0.01 0.00 0.00 0.00 0.00 0.00 0.00 0.00 0.00 0.00 0.00 0.00 0.01 0.01 0.01 0.01 0.01 0.03 0.05 0.09 0.13 0.26 0.41 0.39 0.47 0.59 0.64 0.66 0.75 0.80 0.76 0.74 0.84 0.86
0.04 0.04 0.05 0.08 0.06 0.02 0.00 0.00 0.00 0.00 0.00 0.00 0.00 0.00 0.00 0.00 0.00 0.00 0.00 0.00 0.00 0.00 0.00 0.00 0.00 0.00 0.00 0.00 0.01 0.04 0.07 0.12 0.21 0.33 0.40 0.52 0.55 0.55 0.62 0.69 0.74 0.65 0.60
0.03 0.03 0.03 0.03 0.02 0.01 0.00 0.00 0.00 0.00 0.00 0.00 0.00 0.00 0.00 0.00 0.00 0.00 0.00 0.00 0.00 0.00 0.00 0.00 0.00 0.01 0.00 0.00 0.00 0.00 0.01 0.04 0.08 0.14 0.24 0.31 0.35 0.39 0.46 0.51 0.53 0.51 0.48
0.00 0.00 0.00 0.00 0.00 0.00 0.00 0.00 0.00 0.00 0.00 0.00 0.00 0.00 0.00 0.00 0.00 0.00 0.00 0.00 0.00 0.00 0.01 0.01 0.01 0.01 0.00 0.00 0.00 0.00 0.00 0.00 0.01 0.03 0.05 0.08 0.13 0.20 0.26 0.33 0.37 0.41 0.47
0.00 0.00 0.00 0.00 0.00 0.00 0.00 0.00 0.00 0.00 0.00 0.00 0.00 0.00 0.00 0.00 0.00 0.01 0.02 0.00 0.00 0.00 0.01 0.03 0.02 0.01 0.02 0.02 0.00 0.00 0.00 0.00 0.00 0.00 0.00 0.00 0.01 0.02 0.05 0.09 0.15 0.23 0.28
0.00 0.00 0.00 0.00 0.00 0.00 0.00 0.00 0.00 0.00 0.00 0.00 0.00 0.00 0.00 0.00 0.00 0.00 0.00 0.00 0.00 0.00 0.00 0.01 0.01 0.01 0.00 0.00 0.00 0.00 0.00 0.00 0.00 0.00 0.00 0.00 0.00 0.01 0.01 0.02 0.04 0.07 0.12

GFSMW_prec_precacc24_141.txt.gz
Total_Precipitation_Accumulation
0.00 0.00 0.00 0.00 0.00 0.00 0.00 0.00 0.00 0.00 0.00 0.00 0.00 0.00 0.00 0.00 0.00 0.00 0.00 0.00 0.00 0.00 0.00 0.00 0.00 0.00 0.02 0.09 0.25 0.32 0.39 0.39 0.80 1.64 1.65 1.27 1.30 1.64 1.91 2.40 2.43 2.66 2.66
0.00 0.00 0.00 0.00 0.00 0.00 0.00 0.00 0.00 0.00 0.00 0.00 0.00 0.00 0.00 0.00 0.00 0.00 0.00 0.00 0.00 0.00 0.00 0.00 0.00 0.00 0.00 0.00 0.01 0.02 0.07 0.18 0.34 0.50 0.77 0.92 0.68 0.42 0.27 0.32 0.39 0.35 0.31
0.00 0.00 0.00 0.00 0.00 0.00 0.00 0.00 0.00 0.00 0.00 0.00 0.00 0.00 0.00 0.00 0.00 0.00 0.00 0.00 0.00 0.00 0.00 0.00 0.00 0.00 0.00 0.00 0.00 0.00 0.01 0.03 0.07 0.21 0.29 0.21 0.11 0.07 0.10 0.08 0.12 0.28 0.25
0.00 0.00 0.00 0.00 0.00 0.01 0.00 0.00 0.00 0.00 0.00 0.00 0.00 0.00 0.00 0.00 0.00 0.00 0.00 0.00 0.00 0.00 0.00 0.00 0.00 0.00 0.00 0.01 0.01 0.00 0.01 0.02 0.03 0.02 0.09 0.11 0.09 0.08 0.05 0.05 0.09 0.23 0.18
0.00 0.00 0.01 0.01 0.01 0.00 0.01 0.01 0.02 0.03 0.04 0.04 0.02 0.01 0.01 0.00 0.00 0.00 0.00 0.00 0.00 0.00 0.00 0.00 0.00 0.00 0.01 0.01 0.01 0.01 0.01 0.01 0.02 0.03 0.03 0.06 0.08 0.08 0.10 0.07 0.03 0.07 0.06
0.04 0.04 0.03 0.02 0.02 0.01 0.01 0.00 0.01 0.01 0.02 0.04 0.05 0.04 0.03 0.02 0.01 0.00 0.00 0.00 0.00 0.00 0.00 0.00 0.00 0.00 0.00 0.01 0.01 0.01 0.01 0.02 0.02 0.03 0.03 0.04 0.05 0.04 0.08 0.08 0.03 0.03 0.02
0.08 0.08 0.08 0.06 0.06 0.07 0.08 0.07 0.05 0.03 0.01 0.00 0.01 0.02 0.03 0.04 0.04 0.03 0.01 0.01 0.01 0.00 0.00 0.00 0.00 0.00 0.00 0.00 0.01 0.00 0.01 0.01 0.03 0.02 0.02 0.04 0.03 0.04 0.05 0.05 0.03 0.02 0.00
0.12 0.13 0.13 0.10 0.07 0.05 0.04 0.04 0.05 0.06 0.04 0.03 0.02 0.01 0.01 0.00 0.01 0.01 0.01 0.02 0.02 0.01 0.01 0.01 0.01 0.00 0.00 0.01 0.00 0.01 0.01 0.02 0.02 0.03 0.03 0.03 0.04 0.05 0.06 0.07 0.08 0.05 0.02
0.05 0.05 0.12 0.13 0.09 0.06 0.03 0.02 0.01 0.00 0.00 0.00 0.00 0.00 0.00 0.00 0.00 0.01 0.01 0.01 0.02 0.01 0.01 0.02 0.02 0.01 0.00 0.00 0.01 0.01 0.02 0.02 0.02 0.02 0.03 0.04 0.04 0.05 0.06 0.08 0.09 0.12 0.07
0.01 0.01 0.01 0.05 0.05 0.04 0.03 0.01 0.00 0.00 0.00 0.00 0.00 0.00 0.00 0.00 0.00 0.00 0.00 0.00 0.00 0.00 0.00 0.00 0.00 0.00 0.00 0.01 0.01 0.02 0.02 0.02 0.03 0.03 0.05 0.06 0.06 0.07 0.08 0.10 0.13 0.14 0.14
0.00 0.00 0.01 0.02 0.03 0.03 0.03 0.02 0.02 0.02 0.01 0.00 0.00 0.00 0.00 0.00 0.00 0.00 0.00 0.00 0.00 0.00 0.00 0.00 0.00 0.01 0.00 0.00 0.01 0.02 0.02 0.04 0.07 0.06 0.08 0.10 0.11 0.13 0.13 0.12 0.15 0.20 0.26
0.00 0.00 0.00 0.00 0.01 0.01 0.01 0.01 0.00 0.00 0.00 0.00 0.00 0.00 0.00 0.00 0.00 0.00 0.00 0.00 0.00 0.00 0.00 0.00 0.00 0.00 0.00 0.00 0.01 0.01 0.01 0.01 0.03 0.04 0.05 0.07 0.07 0.10 0.15 0.18 0.17 0.21 0.21
0.00 0.00 0.00 0.00 0.00 0.00 0.00 0.01 0.01 0.01 0.00 0.00 0.00 0.00 0.00 0.00 0.00 0.00 0.00 0.00 0.00 0.00 0.00 0.00 0.00 0.00 0.00 0.00 0.00 0.01 0.00 0.01 0.02 0.05 0.06 0.07 0.08 0.08 0.08 0.11 0.12 0.13 0.18
0.00 0.00 0.00 0.00 0.00 0.00 0.00 0.00 0.00 0.00 0.00 0.00 0.00 0.00 0.00 0.00 0.00 0.00 0.00 0.00 0.00 0.00 0.00 0.00 0.00 0.01 0.00 0.00 0.00 0.00 0.00 0.00 0.02 0.04 0.08 0.12 0.14 0.11 0.08 0.06 0.07 0.10 0.13
0.01 0.01 0.01 0.01 0.01 0.01 0.01 0.01 0.00 0.00 0.00 0.00 0.00 0.00 0.00 0.00 0.00 0.00 0.00 0.00 0.00 0.00 0.00 0.00 0.00 0.00 0.00 0.01 0.00 0.00 0.00 0.00 0.00 0.00 0.01 0.05 0.11 0.12 0.10 0.11 0.10 0.11 0.15
0.06 0.08 0.11 0.12 0.09 0.05 0.02 0.01 0.00 0.00 0.00 0.00 0.00 0.00 0.00 0.00 0.00 0.00 0.00 0.00 0.00 0.00 0.00 0.00 0.00 0.00 0.01 0.01 0.01 0.00 0.00 0.00 0.00 0.00 0.00 0.01 0.01 0.02 0.05 0.14 0.18 0.23 0.24
0.02 0.01 0.01 0.01 0.01 0.01 0.01 0.02 0.03 0.01 0.00 0.00 0.00 0.00 0.00 0.00 0.00 0.00 0.00 0.00 0.00 0.00 0.00 0.00 0.00 0.00 0.01 0.00 0.00 0.00 0.01 0.02 0.03 0.04 0.03 0.02 0.02 0.05 0.20 0.28 0.29 0.29 0.25
0.02 0.01 0.01 0.01 0.02 0.04 0.06 0.09 0.08 0.03 0.00 0.00 0.00 0.00 0.00 0.00 0.00 0.00 0.00 0.00 0.00 0.01 0.01 0.00 0.00 0.00 0.01 0.00 0.00 0.01 0.03 0.05 0.07 0.10 0.11 0.11 0.17 0.31 0.32 0.23 0.25 0.31 0.31
0.02 0.02 0.04 0.03 0.04 0.06 0.09 0.07 0.04 0.03 0.00 0.00 0.00 0.00 0.00 0.00 0.00 0.00 0.00 0.00 0.00 0.00 0.00 0.01 0.01 0.00 0.00 0.00 0.01 0.02 0.04 0.08 0.09 0.09 0.09 0.10 0.15 0.30 0.42 0.47 0.34 0.28 0.28
0.04 0.06 0.05 0.04 0.03 0.04 0.02 0.02 0.02 0.01 0.00 0.00 0.00 0.00 0.00 0.00 0.00 0.00 0.00 0.00 0.00 0.00 0.00 0.00 0.00 0.01 0.00 0.00 0.00 0.00 0.01 0.03 0.05 0.05 0.08 0.11 0.19 0.21 0.26 0.42 0.45 0.38 0.39
0.03 0.04 0.04 0.04 0.04 0.02 0.00 0.00 0.00 0.00 0.00 0.00 0.00 0.00 0.00 0.00 0.00 0.00 0.00 0.01 0.01 0.00 0.01 0.00 0.00 0.00 0.00 0.00 0.00 0.00 0.01 0.01 0.02 0.02 0.04 0.10 0.16 0.23 0.30 0.39 0.45 0.54 0.53
0.03 0.02 0.03 0.04 0.03 0.00 0.00 0.00 0.00 0.00 0.00 0.00 0.00 0.00 0.00 0.00 0.00 0.01 0.02 0.01 0.01 0.00 0.00 0.00 0.00 0.00 0.00 0.00 0.00 0.00 0.00 0.00 0.01 0.02 0.02 0.04 0.04 0.08 0.17 0.24 0.36 0.40 0.37
0.02 0.02 0.02 0.02 0.02 0.01 0.00 0.00 0.00 0.00 0.00 0.00 0.00 0.00 0.00 0.00 0.00 0.00 0.01 0.01 0.00 0.00 0.00 0.00 0.00 0.00 0.00 0.00 0.00 0.00 0.00 0.00 0.00 0.00 0.00 0.00 0.01 0.01 0.03 0.06 0.13 0.19 0.24
0.00 0.00 0.00 0.00 0.01 0.01 0.00 0.00 0.01 0.00 0.00 0.00 0.00 0.00 0.00 0.00 0.00 0.00 0.00 0.00 0.00 0.00 0.00 0.00 0.01 0.00 0.00 0.00 0.00 0.00 0.00 0.00 0.00 0.00 0.00 0.00 0.00 0.00 0.00 0.01 0.02 0.05 0.11
0.00 0.00 0.00 0.00 0.00 0.01 0.01 0.01 0.01 0.00 0.00 0.00 0.00 0.00 0.00 0.00 0.00 0.00 0.00 0.00 0.00 0.00 0.00 0.01 0.01 0.00 0.01 0.01 0.00 0.00 0.00 0.00 0.00 0.00 0.00 0.00 0.00 0.00 0.00 0.00 0.00 0.01 0.02
0.00 0.00 0.00 0.00 0.01 0.02 0.02 0.01 0.00 0.00 0.00 0.00 0.00 0.00 0.00 0.00 0.00 0.00 0.00 0.00 0.00 0.00 0.00 0.00 0.00 0.00 0.00 0.00 0.00 0.00 0.00 0.00 0.00 0.00 0.00 0.00 0.00 0.00 0.00 0.00 0.00 0.00 0.01

GFSMW_prec_precacc24_144.txt.gz
Total_Precipitation_Accumulation
0.00 0.00 0.00 0.00 0.00 0.00 0.00 0.00 0.00 0.00 0.00 0.00 0.00 0.00 0.00 0.00 0.00 0.00 0.00 0.00 0.00 0.00 0.00 0.00 0.00 0.00 0.00 0.00 0.02 0.04 0.09 0.20 0.53 1.17 1.35 1.14 1.20 1.52 1.77 2.23 2.22 2.47 2.51
0.00 0.00 0.00 0.00 0.00 0.00 0.00 0.00 0.00 0.00 0.00 0.00 0.00 0.00 0.00 0.00 0.00 0.00 0.00 0.00 0.00 0.00 0.00 0.00 0.00 0.00 0.00 0.00 0.00 0.00 0.00 0.02 0.07 0.20 0.49 0.76 0.52 0.30 0.19 0.18 0.17 0.15 0.14
0.00 0.00 0.00 0.00 0.00 0.00 0.00 0.00 0.00 0.00 0.00 0.00 0.00 0.00 0.00 0.00 0.00 0.00 0.00 0.00 0.00 0.00 0.00 0.00 0.00 0.00 0.00 0.00 0.00 0.00 0.00 0.01 0.01 0.05 0.10 0.12 0.05 0.03 0.05 0.05 0.02 0.03 0.02
0.00 0.00 0.00 0.00 0.00 0.00 0.00 0.00 0.00 0.00 0.00 0.00 0.00 0.00 0.00 0.00 0.00 0.00 0.00 0.00 0.00 0.00 0.00 0.00 0.00 0.00 0.00 0.00 0.01 0.00 0.01 0.01 0.01 0.02 0.05 0.06 0.08 0.08 0.05 0.05 0.05 0.02 0.02
0.00 0.00 0.00 0.00 0.00 0.00 0.00 0.00 0.00 0.00 0.04 0.04 0.02 0.01 0.01 0.00 0.00 0.00 0.00 0.00 0.00 0.00 0.00 0.00 0.00 0.00 0.00 0.00 0.00 0.01 0.01 0.01 0.02 0.02 0.03 0.06 0.07 0.07 0.11 0.07 0.03 0.06 0.05
0.00 0.00 0.00 0.00 0.01 0.01 0.00 0.00 0.00 0.00 0.01 0.03 0.05 0.04 0.03 0.02 0.01 0.00 0.00 0.00 0.00 0.00 0.00 0.00 0.00 0.00 0.00 0.00 0.00 0.00 0.01 0.01 0.01 0.02 0.03 0.04 0.05 0.04 0.08 0.08 0.03 0.03 0.02
0.00 0.00 0.00 0.00 0.01 0.02 0.02 0.02 0.02 0.02 0.01 0.00 0.01 0.02 0.03 0.04 0.04 0.03 0.01 0.01 0.01 0.00 0.00 0.00 0.00 0.00 0.00 0.00 0.00 0.00 0.00 0.01 0.01 0.01 0.01 0.02 0.03 0.03 0.04 0.05 0.03 0.02 0.00
0.00 0.00 0.00 0.00 0.00 0.01 0.02 0.01 0.01 0.02 0.02 0.02 0.02 0.01 0.01 0.00 0.01 0.01 0.01 0.02 0.02 0.01 0.01 0.01 0.01 0.00 0.00 0.00 0.00 0.00 0.01 0.01 0.01 0.01 0.01 0.02 0.02 0.04 0.06 0.07 0.08 0.06 0.02
0.00 0.00 0.00 0.00 0.00 0.00 0.02 0.01 0.01 0.00 0.00 0.00 0.00 0.00 0.00 0.00 0.00 0.01 0.01 0.01 0.02 0.01 0.01 0.02 0.02 0.01 0.00 0.00 0.01 0.01 0.01 0.01 0.01 0.01 0.01 0.02 0.03 0.04 0.05 0.07 0.09 0.13 0.09
0.00 0.00 0.00 0.00 0.00 0.00 0.00 0.00 0.00 0.00 0.00 0.00 0.00 0.00 0.00 0.00 0.00 0.00 0.00 0.00 0.00 0.00 0.00 0.00 0.00 0.00 0.00 0.00 0.01 0.01 0.01 0.01 0.01 0.02 0.03 0.03 0.05 0.06 0.07 0.10 0.13 0.15 0.16
0.00 0.00 0.00 0.00 0.00 0.00 0.00 0.00 0.00 0.00 0.00 0.00 0.00 0.00 0.00 0.00 0.00 0.00 0.00 0.00 0.00 0.00 0.00 0.00 0.00 0.00 0.00 0.00 0.01 0.02 0.02 0.03 0.05 0.03 0.06 0.08 0.09 0.10 0.11 0.14 0.18 0.20 0.23
0.00 0.00 0.00 0.00 0.00 0.00 0.00 0.00 0.00 0.00 0.00 0.00 0.00 0.00 0.00 0.00 0.00 0.00 0.00 0.00 0.00 0.00 0.00 0.00 0.00 0.00 0.00 0.00 0.01 0.01 0.01 0.01 0.02 0.02 0.03 0.06 0.06 0.09 0.11 0.16 0.19 0.19 0.18
0.00 0.00 0.00 0.00 0.00 0.00 0.00 0.00 0.00 0.00 0.00 0.00 0.00 0.00 0.00 0.00 0.00 0.00 0.00 0.00 0.00 0.00 0.00 0.00 0.00 0.00 0.00 0.00 0.00 0.00 0.00 0.01 0.01 0.02 0.03 0.04 0.05 0.05 0.06 0.07 0.08 0.08 0.09
0.00 0.00 0.00 0.00 0.00 0.00 0.00 0.00 0.00 0.00 0.00 0.00 0.00 0.00 0.00 0.00 0.00 0.00 0.00 0.00 0.00 0.00 0.00 0.00 0.00 0.01 0.00 0.00 0.00 0.00 0.00 0.00 0.01 0.01 0.01 0.03 0.04 0.06 0.06 0.05 0.07 0.08 0.08
0.01 0.01 0.01 0.01 0.01 0.00 0.01 0.00 0.00 0.00 0.00 0.00 0.00 0.00 0.00 0.00 0.00 0.00 0.00 0.00 0.00 0.00 0.00 0.00 0.00 0.00 0.00 0.01 0.00 0.00 0.00 0.00 0.00 0.00 0.00 0.01 0.05 0.07 0.06 0.07 0.09 0.09 0.09
0.06 0.08 0.11 0.12 0.10 0.08 0.05 0.02 0.01 0.00 0.00 0.00 0.00 0.00 0.00 0.00 0.00 0.00 0.00 0.00 0.00 0.00 0.00 0.00 0.00 0.00 0.01 0.01 0.00 0.00 0.00 0.00 0.00 0.00 0.00 0.00 0.01 0.02 0.03 0.06 0.11 0.18 0.19
0.02 0.03 0.02 0.00 0.01 0.01 0.01 0.02 0.02 0.02 0.02 0.02 0.00 0.00 0.00 0.00 0.00 0.00 0.00 0.00 0.00 0.00 0.00 0.00 0.00 0.00 0.00 0.00 0.00 0.00 0.00 0.00 0.01 0.01 0.01 0.00 0.01 0.01 0.00 0.01 0.03 0.06 0.09
0.02 0.02 0.01 0.01 0.02 0.03 0.05 0.09 0.12 0.16 0.14 0.03 0.00 0.00 0.00 0.00 0.00 0.00 0.00 0.00 0.00 0.01 0.01 0.00 0.00 0.00 0.00 0.00 0.00 0.00 0.00 0.00 0.00 0.01 0.01 0.02 0.02 0.03 0.02 0.01 0.03 0.09 0.12
0.04 0.04 0.04 0.03 0.03 0.05 0.07 0.09 0.11 0.10 0.06 0.03 0.00 0.00 0.00 0.00 0.00 0.00 0.00 0.00 0.00 0.00 0.00 0.00 0.00 0.00 0.00 0.00 0.00 0.00 0.00 0.00 0.00 0.01 0.01 0.01 0.02 0.04 0.05 0.06 0.08 0.13 0.19
0.05 0.06 0.06 0.04 0.03 0.03 0.02 0.02 0.05 0.04 0.04 0.02 0.00 0.00 0.00 0.00 0.00 0.00 0.00 0.00 0.00 0.00 0.00 0.00 0.00 0.00 0.00 0.00 0.00 0.00 0.00 0.00 0.00 0.00 0.00 0.01 0.02 0.02 0.04 0.09 0.13 0.19 0.27
0.03 0.04 0.04 0.05 0.04 0.02 0.02 0.01 0.01 0.01 0.01 0.00 0.00 0.00 0.00 0.00 0.00 0.00 0.00 0.01 0.01 0.00 0.01 0.00 0.00 0.00 0.00 0.00 0.00 0.00 0.00 0.00 0.00 0.00 0.01 0.01 0.01 0.02 0.03 0.07 0.14 0.25 0.31
0.02 0.02 0.04 0.05 0.04 0.02 0.01 0.00 0.01 0.01 0.00 0.00 0.00 0.00 0.00 0.00 0.00 0.01 0.02 0.01 0.01 0.00 0.00 0.00 0.00 0.00 0.00 0.00 0.00 0.00 0.00 0.00 0.00 0.01 0.01 0.00 0.00 0.00 0.01 0.03 0.06 0.08 0.12
0.02 0.02 0.02 0.03 0.03 0.01 0.01 0.01 0.01 0.01 0.00 0.00 0.00 0.00 0.00 0.00 0.00 0.00 0.01 0.01 0.00 0.00 0.00 0.00 0.00 0.00 0.00 0.00 0.00 0.00 0.00 0.00 0.00 0.00 0.00 0.00 0.00 0.00 0.00 0.00 0.01 0.03 0.06
0.00 0.00 0.00 0.00 0.01 0.01 0.00 0.01 0.05 0.01 0.00 0.00 0.00 0.00 0.00 0.00 0.01 0.00 0.00 0.00 0.00 0.00 0.00 0.00 0.01 0.00 0.00 0.00 0.00 0.00 0.00 0.00 0.00 0.00 0.00 0.00 0.00 0.00 0.00 0.00 0.00 0.01 0.02
0.00 0.00 0.00 0.00 0.00 0.01 0.01 0.03 0.03 0.00 0.00 0.00 0.00 0.00 0.00 0.00 0.01 0.00 0.00 0.00 0.00 0.00 0.00 0.01 0.01 0.00 0.01 0.01 0.00 0.00 0.00 0.00 0.00 0.00 0.00 0.00 0.00 0.00 0.00 0.00 0.00 0.00 0.00
0.00 0.00 0.00 0.00 0.01 0.02 0.05 0.07 0.03 0.00 0.00 0.00 0.00 0.00 0.00 0.00 0.00 0.00 0.01 0.00 0.00 0.00 0.00 0.00 0.00 0.00 0.01 0.01 0.00 0.00 0.00 0.00 0.00 0.00 0.00 0.00 0.00 0.00 0.00 0.00 0.00 0.00 0.00